GFSNW_prec_cloud_036.txt.gz
Cloud_Cover
100 100 100 100 100 100 100 100 100 100 100 100 100 100 100 98 5 66 71 100 100 97 100 100 100 100 79 6 5 16 95 100 100 100 100 100 100 100 100 100 100 100 100 100
100 100 100 100 100 100 100 100 100 100 100 100 100 100 100 77 30 86 100 100 100 100 100 100 100 100 54 26 24 100 100 100 100 100 100 100 100 100 100 100 100 100 100 100
100 100 100 100 100 100 100 100 100 100 100 100 99 100 97 99 75 100 100 100 100 100 100 100 100 86 17 13 98 100 100 100 100 100 100 100 100 100 100 100 100 100 100 100
12 100 100 100 100 100 100 100 100 91 100 100 100 100 98 99 100 100 100 100 100 100 100 100 100 62 12 100 100 100 100 100 100 100 100 100 100 100 100 100 98 100 100 100
40 100 100 100 100 100 100 100 100 100 100 100 100 100 100 100 100 100 100 100 100 100 100 92 92 30 100 100 100 100 100 100 100 100 100 100 100 98 100 100 100 100 100 100
86 100 100 100 100 100 100 100 100 100 100 100 100 100 100 100 100 100 100 100 100 100 100 58 55 88 100 100 100 100 100 100 100 100 100 100 95 94 100 100 100 100 100 100
5 85 100 100 100 100 100 100 100 100 100 100 100 100 100 100 100 100 100 100 100 100 100 92 78 100 98 100 100 100 100 100 100 100 100 100 100 95 61 92 64 94 87 100
5 16 44 98 100 100 100 100 100 100 100 100 100 100 100 100 100 100 100 100 100 100 94 54 100 100 100 100 100 100 100 100 100 100 100 100 8 83 84 64 80 86 10 20
86 68 100 100 100 100 100 100 100 100 100 100 100 100 100 100 100 100 100 100 100 100 83 100 100 100 56 100 100 52 94 100 100 100 61 7 7 8 5 98 98 90 18 40
43 95 77 99 100 100 100 100 100 100 100 100 100 100 100 100 100 100 100 100 100 93 100 66 92 100 100 100 100 100 100 100 100 100 100 55 23 29 18 11 28 99 75 5
100 73 92 100 100 100 100 100 100 100 100 100 100 100 100 100 100 100 100 100 99 100 100 100 100 100 100 100 100 95 99 98 19 98 100 38 4 40 31 79 5 5 5 5
10 83 100 100 100 100 100 100 100 100 100 100 100 100 100 100 100 100 100 100 100 100 100 100 100 100 100 100 100 100 96 48 19 22 9 34 5 5 54 85 9 35 82 50
21 78 100 100 100 100 100 100 100 100 100 100 100 100 100 100 100 100 100 100 100 100 100 100 100 100 100 100 100 100 100 100 99 81 12 39 59 44 98 99 98 100 100 99
26 100 91 100 100 100 100 100 100 100 100 100 100 100 100 100 100 100 100 100 100 100 100 100 100 100 100 100 100 85 74 74 92 71 60 42 33 78 100 100 100 100 100 100
92 100 100 100 100 100 100 100 100 100 100 100 100 100 100 100 100 100 100 100 100 100 100 100 100 100 100 99 94 99 87 88 86 100 100 100 100 100 100 100 100 91 96 88
81 80 100 100 100 100 100 100 100 100 100 100 100 100 100 100 100 100 100 100 100 100 100 100 100 100 100 100 100 100 100 100 100 100 100 100 100 100 100 98 100 100 100 91
98 100 100 100 100 100 100 100 100 100 100 100 100 100 100 100 100 100 100 100 100 100 100 100 100 100 100 100 100 100 100 100 100 100 96 94 100 100 100 100 100 100 100 100
100 100 100 100 100 100 100 100 100 100 100 100 100 100 100 100 100 100 100 100 100 100 100 100 100 100 100 100 100 100 100 100 100 100 100 100 100 100 100 100 99 100 100 93
100 100 100 100 100 100 100 100 100 100 100 100 100 100 100 100 100 100 100 100 100 100 100 100 100 100 100 100 100 100 100 100 100 100 100 100 100 100 100 84 76 83 79 100
100 100 100 100 100 100 100 100 100 100 100 100 100 100 100 100 100 100 100 100 100 100 100 100 100 100 100 100 80 100 100 98 100 100 100 100 100 100 98 91 89 59 65 75
100 100 100 100 100 100 100 100 100 100 100 100 100 100 100 100 100 100 100 100 100 100 100 100 100 100 100 100 100 100 100 100 100 100 100 100 100 99 99 95 100 100 100 100
100 100 100 100 100 100 100 100 100 100 100 100 100 100 100 100 100 100 100 100 100 100 98 97 100 100 100 98 79 95 100 100 100 100 100 100 100 91 97 100 100 95 93 100
100 100 100 100 100 100 100 100 100 100 100 100 100 100 100 100 100 100 100 100 100 100 100 100 79 25 12 11 17 18 79 100 100 96 93 100 100 100 99 80 99 95 100 99
100 100 100 100 100 100 100 100 100 100 100 100 100 100 100 100 100 100 100 100 100 100 100 100 100 100 99 95 97 97 74 58 65 100 100 100 100 84 98 100 96 100 100 100
100 100 100 100 100 100 100 100 100 100 100 100 100 100 100 100 100 100 100 100 100 100 100 98 65 95 66 65 76 85 100 100 100 100 100 100 100 100 96 81 100 100 100 100
100 100 92 100 100 100 100 100 100 100 100 100 100 100 100 100 66 100 100 100 100 100 100 26 66 81 86 97 98 100 100 95 99 100 100 100 99 100 93 92 92 91 99 95
100 98 87 100 100 100 100 100 100 100 100 100 100 100 100 100 100 100 100 100 100 100 100 100 100 100 100 100 100 100 100 100 100 100 100 99 87 95 100 94 88 86 91 100

GFSNW_prec_cloud_039.txt.gz
Cloud_Cover
13 91 100 100 100 100 100 100 100 100 100 100 100 100 100 99 100 100 100 72 91 58 86 100 100 99 82 98 100 82 82 99 95 100 100 100 100 100 100 100 100 100 100 100
5 16 100 100 100 100 100 100 99 100 100 100 100 100 67 48 18 100 34 53 35 60 96 100 100 96 84 100 100 69 72 100 77 100 96 100 100 100 100 100 100 100 100 100
5 74 100 100 100 100 100 100 100 100 100 100 100 100 100 33 80 100 60 45 68 98 100 100 99 100 83 100 87 88 100 100 100 100 100 100 100 100 100 100 100 100 100 100
5 100 89 100 100 100 100 100 100 100 100 100 100 98 79 6 100 65 39 100 98 100 100 100 100 100 100 69 55 100 100 100 93 100 100 100 100 100 100 100 100 100 100 100
8 100 93 100 100 100 100 100 100 100 100 100 100 100 100 100 100 88 100 95 100 100 100 99 100 100 100 79 100 100 100 100 100 100 100 100 100 100 100 100 100 100 100 100
52 99 100 100 100 100 100 100 100 100 100 100 100 100 100 100 99 100 100 100 100 100 100 100 100 100 69 100 100 100 100 100 100 100 100 100 100 100 100 100 100 100 100 100
35 14 100 100 91 100 100 100 100 100 98 100 100 100 100 100 100 100 100 100 100 100 100 100 100 100 100 100 100 100 100 100 100 100 100 100 100 100 100 100 100 100 100 100
6 66 44 100 100 100 100 100 100 100 100 100 92 100 100 100 100 100 100 100 100 100 100 97 90 100 100 100 100 100 100 100 100 100 100 100 99 100 100 100 100 100 100 100
5 86 36 87 100 100 100 100 100 100 100 100 100 100 100 100 100 100 100 100 100 100 100 84 82 100 100 100 100 100 100 100 100 100 100 100 54 99 99 100 100 100 100 100
5 5 5 56 100 100 100 100 100 100 100 100 100 100 100 100 100 100 100 100 100 100 99 97 98 100 100 100 100 100 100 100 100 100 99 95 98 98 100 100 100 100 100 100
5 5 8 72 100 100 100 100 100 100 100 100 100 100 100 100 100 100 100 100 100 100 100 61 100 100 93 84 100 100 100 100 99 100 100 100 100 100 100 100 100 100 100 100
16 5 7 98 100 100 100 100 100 100 100 100 100 100 100 100 100 100 100 100 100 97 100 54 100 100 19 90 81 74 100 100 80 100 100 100 100 100 100 100 100 56 70 97
5 4 38 98 100 100 100 100 100 100 100 100 100 100 100 100 100 100 100 100 100 85 43 100 100 85 94 91 100 100 100 95 100 100 100 62 46 6 12 60 17 5 48 14
12 97 77 52 90 100 100 100 100 100 100 100 100 100 100 100 100 100 100 100 100 100 100 100 100 100 100 100 100 100 100 100 100 100 88 97 83 88 95 57 50 100 100 100
32 37 8 17 96 100 100 100 100 100 100 100 100 100 100 100 100 100 100 100 100 100 100 100 100 100 100 100 100 100 100 100 99 84 96 100 100 100 100 100 96 100 100 100
91 70 6 52 94 100 100 100 100 100 100 100 100 100 100 100 100 100 100 100 100 100 100 100 100 100 100 100 91 100 68 100 100 100 100 100 100 100 100 100 100 100 100 100
67 44 15 53 100 100 100 100 100 100 100 100 100 100 100 100 100 100 100 100 100 100 100 100 100 100 100 100 100 100 100 100 100 100 100 96 97 98 100 100 100 98 100 100
100 100 100 98 100 100 100 100 100 100 100 100 100 100 100 100 100 100 100 100 100 100 100 100 100 100 100 100 100 100 100 100 94 100 100 100 100 100 100 97 100 98 100 100
100 100 100 100 100 100 100 100 100 100 100 100 100 100 100 100 100 100 100 100 100 100 100 100 100 100 100 93 100 71 75 95 100 99 100 100 100 100 100 100 97 90 92 86
100 98 100 100 100 100 100 100 100 100 100 100 100 100 100 100 100 100 100 100 100 100 100 100 95 100 100 78 37 45 95 100 100 100 100 100 100 100 100 100 99 78 98 100
100 100 100 100 100 100 100 100 100 100 100 100 100 96 100 93 100 100 96 100 100 100 100 100 100 100 100 90 100 100 100 99 100 99 100 100 100 95 97 93 100 100 100 100
100 100 100 100 100 100 100 100 100 100 100 100 100 100 100 100 100 100 100 100 100 99 99 100 100 99 100 100 100 100 100 100 100 100 100 100 100 100 100 100 100 100 100 100
100 100 100 100 100 100 100 100 100 100 100 100 100 100 100 100 100 100 100 100 97 100 99 100 98 100 100 100 100 100 100 100 100 100 100 100 100 100 100 100 100 100 100 100
100 100 100 100 100 94 100 100 100 100 100 100 100 100 100 100 100 100 100 100 100 100 82 97 97 94 79 98 100 100 100 100 100 94 100 100 100 100 100 100 100 100 100 100
100 100 100 100 100 100 100 100 100 100 100 100 100 100 100 100 100 90 100 100 100 100 86 40 25 6 5 5 14 54 87 97 100 91 100 100 100 100 100 100 100 100 100 100
100 100 95 100 100 100 100 100 100 100 100 100 100 100 100 100 100 100 100 100 100 100 89 13 70 86 82 89 100 100 100 99 100 100 100 100 100 100 100 100 100 100 100 100
98 94 66 96 100 100 100 100 100 100 100 100 100 100 100 100 100 100 100 100 100 39 15 31 17 38 53 92 100 100 100 100 100 100 100 74 94 100 96 100 100 100 98 99

GFSNW_prec_cloud_042.txt.gz
Cloud_Cover
5 2 28 94 100 100 100 100 98 100 100 100 100 100 100 100 100 100 100 100 100 68 99 100 97 100 100 100 67 81 78 100 99 100 100 100 100 95 100 100 100 100 100 100
36 5 45 84 100 100 100 100 100 100 100 100 100 100 100 100 100 100 100 100 93 16 70 98 94 100 70 91 41 11 100 100 83 100 100 100 100 100 100 100 100 100 100 100
82 5 38 100 100 100 100 100 100 100 100 100 100 100 100 100 99 100 100 100 71 71 88 100 95 100 100 96 25 82 100 80 66 100 100 99 99 98 100 100 100 100 86 100
77 20 41 100 100 100 100 100 100 100 100 100 100 100 100 99 42 13 72 84 91 33 99 100 100 100 45 39 91 100 99 95 100 100 100 94 100 100 100 100 100 100 100 100
76 26 5 100 100 100 100 100 100 100 100 100 100 100 80 84 14 6 63 95 91 98 100 92 96 100 100 98 100 100 96 100 100 100 100 100 100 100 100 100 100 100 100 100
88 30 5 82 100 100 100 100 100 100 100 100 100 100 99 99 7 51 99 46 100 98 98 100 100 100 100 100 100 89 100 100 100 100 100 100 100 100 100 100 100 100 100 90
5 5 44 93 100 100 100 100 100 100 100 100 91 100 99 100 100 100 100 87 99 100 100 100 100 100 100 100 94 100 100 100 100 100 100 100 100 100 100 100 100 100 100 100
58 5 5 70 100 100 100 100 100 100 100 100 100 100 100 99 100 100 93 100 100 100 100 100 100 100 100 90 100 100 100 100 100 100 100 100 100 100 100 100 100 100 100 100
74 5 31 9 100 100 100 100 100 100 100 100 96 100 100 100 100 100 100 100 100 100 100 100 100 72 21 100 100 100 99 99 100 100 100 100 100 100 100 100 100 100 100 100
8 13 41 89 100 100 100 100 100 100 100 93 100 100 100 100 100 100 100 100 100 100 100 100 98 96 100 100 100 100 100 100 100 100 100 100 100 100 100 100 100 100 100 100
55 70 5 55 100 100 100 100 100 100 97 100 100 100 100 100 100 100 100 100 100 100 100 100 100 100 100 100 100 100 74 96 79 86 100 93 100 100 100 100 100 100 100 100
5 5 5 65 98 100 100 100 100 100 100 100 100 100 100 100 100 100 100 100 100 100 100 100 100 100 100 100 100 91 98 100 100 100 100 100 100 100 100 100 100 100 100 100
5 7 96 96 100 100 100 100 100 100 100 100 100 100 100 100 100 100 100 100 100 99 86 100 100 100 66 83 61 74 97 96 100 100 100 100 100 100 100 100 100 100 100 100
8 89 59 5 100 100 100 100 100 100 100 100 100 100 100 100 100 100 100 100 100 100 88 100 91 100 74 100 90 83 100 98 100 100 100 100 100 100 95 100 100 100 100 100
5 23 84 35 100 100 100 100 100 100 100 100 100 100 100 100 100 100 100 100 100 100 99 100 96 91 87 100 100 100 100 100 100 100 100 100 100 100 100 53 100 100 100 100
82 74 78 76 100 100 100 100 100 100 100 100 100 100 100 100 100 100 100 100 100 100 100 100 100 100 100 100 100 100 100 100 100 100 100 100 100 100 100 100 100 100 100 100
82 86 71 99 100 100 100 100 100 100 100 100 100 100 100 100 100 100 100 100 100 100 100 100 100 100 100 100 99 100 100 100 100 100 100 100 100 100 100 98 100 100 100 100
100 100 100 100 100 100 100 100 100 100 100 100 100 100 100 100 100 100 100 100 100 100 100 100 100 100 100 99 100 100 100 100 89 100 100 100 100 100 100 98 88 97 100 100
100 100 100 100 100 100 100 100 100 100 100 100 100 100 100 100 100 100 100 100 100 100 100 100 100 100 96 46 100 99 98 98 100 100 100 100 100 100 100 100 100 100 100 100
100 100 100 100 100 100 100 100 100 100 100 100 100 100 100 100 100 99 88 100 100 100 100 100 100 100 100 100 100 100 100 100 100 100 100 100 100 100 100 100 100 100 100 100
100 100 100 100 100 100 100 100 100 100 100 100 100 100 100 97 100 100 97 99 100 100 100 100 100 100 100 100 100 100 100 100 97 100 93 93 100 99 100 100 100 100 100 100
100 100 100 100 100 100 100 100 100 100 100 100 100 100 100 100 100 100 100 100 100 100 100 100 88 100 100 100 100 100 100 100 90 84 100 100 100 100 100 100 100 100 96 99
100 100 100 100 100 100 100 100 100 100 100 100 100 100 100 100 100 98 100 100 100 99 100 100 100 100 100 100 100 100 100 100 100 100 100 100 100 100 100 100 100 100 100 100
100 100 100 100 100 100 100 100 100 100 100 100 100 100 100 100 100 100 99 100 100 100 100 92 14 92 100 99 85 100 100 98 86 100 100 100 100 100 100 100 100 100 100 100
100 100 100 100 91 100 100 100 100 100 100 100 100 100 100 100 100 100 96 100 100 100 92 100 94 83 58 94 100 100 100 100 100 100 100 100 100 100 100 100 100 100 100 100
100 96 100 98 90 97 100 100 100 100 100 100 100 100 100 100 100 81 100 100 100 100 65 40 80 63 51 77 95 100 100 100 100 100 100 100 100 100 100 100 100 100 100 100
70 75 100 96 100 99 100 100 100 100 100 100 100 100 97 98 100 91 63 100 98 15 7 64 79 96 99 100 100 100 100 100 100 100 100 95 84 99 99 87 87 82 85 91

GFSNW_prec_cloud_045.txt.gz
Cloud_Cover
5 78 37 56 13 99 100 100 100 99 100 100 100 100 100 100 100 100 100 100 100 100 100 100 100 100 100 100 100 100 100 100 100 61 5 48 44 100 100 100 100 84 99 39
14 63 46 88 100 100 100 100 100 100 100 100 100 100 100 100 100 100 100 100 99 97 100 100 100 100 100 100 100 100 100 98 60 5 23 21 93 100 100 100 100 100 100 17
37 98 14 100 100 100 100 100 100 100 100 100 100 100 100 100 100 100 100 100 100 100 100 100 100 100 100 100 100 100 100 94 8 23 4 87 100 100 100 100 100 63 36 21
58 60 24 100 100 100 100 100 100 100 100 100 100 100 100 100 100 92 90 58 77 99 100 100 100 100 100 100 100 100 100 100 72 46 99 100 98 100 100 100 100 100 78 71
94 73 5 97 100 100 100 100 100 100 100 100 100 100 100 100 100 100 36 5 100 99 98 50 98 79 100 100 82 100 100 85 88 100 100 100 100 100 100 100 100 100 100 100
11 34 5 39 98 100 100 100 100 100 100 100 100 100 100 100 100 84 35 37 94 67 61 73 88 100 100 96 88 84 100 100 100 100 100 75 100 100 100 100 100 100 100 100
17 23 18 5 80 99 100 100 100 100 100 100 100 100 100 100 99 43 67 100 96 81 100 97 100 100 100 100 96 100 92 100 100 100 99 100 100 100 100 100 100 100 100 100
5 5 20 9 100 100 100 100 100 100 100 100 100 92 89 100 99 93 36 96 59 99 100 100 100 100 100 100 100 100 97 100 100 100 100 100 100 100 100 100 100 100 100 100
5 5 5 95 96 100 100 100 100 100 100 100 100 96 85 100 100 93 98 98 100 100 100 100 100 99 12 71 56 5 100 100 100 100 100 94 100 100 100 100 100 100 100 100
5 5 5 4 16 100 100 100 100 100 91 58 56 96 86 99 100 100 100 100 100 100 100 100 97 90 30 82 73 100 100 100 100 100 96 100 100 100 100 100 100 100 100 100
5 15 5 58 41 96 98 100 100 100 100 12 68 94 100 100 100 100 100 100 100 100 100 100 100 70 42 100 100 100 100 100 100 100 100 91 100 100 100 100 100 100 100 100
5 5 5 6 99 38 73 100 100 100 100 100 100 100 100 100 100 100 100 100 100 100 100 100 100 16 66 100 86 100 100 100 84 100 100 98 89 81 96 97 100 100 100 100
5 5 5 6 5 69 98 100 100 100 100 100 100 100 100 100 100 100 100 100 100 100 99 98 98 100 100 97 100 100 100 100 100 92 81 100 100 100 100 100 100 100 100 100
14 5 5 85 5 5 52 91 100 100 100 100 100 100 100 100 100 100 100 100 100 100 100 100 100 100 100 92 100 100 99 87 100 99 100 65 100 60 90 100 100 100 100 100
63 88 87 83 98 43 15 92 100 100 100 100 100 100 100 100 100 100 100 100 100 100 100 100 100 100 100 96 98 97 100 60 99 100 29 70 41 38 28 91 100 100 98 100
100 78 22 6 5 94 100 100 100 100 100 100 100 100 100 100 100 100 100 100 100 100 100 89 68 100 51 98 100 100 100 100 100 100 100 100 93 100 100 100 100 97 99 100
100 100 84 23 31 91 100 100 100 100 100 100 100 100 100 100 100 100 100 100 100 100 100 98 99 92 100 100 100 100 100 100 100 100 100 100 100 100 89 100 100 100 100 100
100 100 88 100 100 100 100 100 100 100 100 100 100 100 100 100 100 100 100 100 100 100 100 100 100 100 100 96 100 100 100 100 100 100 100 100 100 100 100 100 100 100 100 100
100 54 100 97 100 100 100 100 100 100 100 100 100 100 100 100 100 100 100 100 100 100 100 100 100 100 98 100 100 100 98 97 99 100 100 96 100 100 100 100 100 100 100 100
100 100 100 100 100 100 100 100 100 100 100 100 100 100 93 100 100 100 100 100 100 100 100 100 100 100 100 100 100 100 100 100 100 100 100 100 100 100 100 100 100 100 100 100
100 100 100 100 100 100 100 100 100 100 100 100 100 100 100 100 100 100 100 100 100 100 100 100 100 100 100 100 100 100 100 100 100 100 100 100 100 100 100 100 100 100 99 100
100 100 100 100 100 100 100 100 100 100 100 100 100 100 100 100 100 100 100 100 100 100 100 100 100 100 100 100 100 100 100 100 100 100 100 100 100 100 98 94 98 97 99 99
100 100 100 100 100 100 100 100 100 100 100 100 100 100 100 99 100 100 100 100 100 100 100 100 100 100 100 100 100 100 100 100 100 100 100 100 99 100 100 100 100 100 100 100
100 100 100 100 100 100 100 100 100 100 100 100 100 100 100 100 100 100 100 100 100 100 100 100 100 100 99 87 100 100 99 100 100 100 100 100 100 100 100 100 100 100 100 100
100 99 98 100 100 100 100 100 100 100 100 100 100 100 100 100 100 100 100 100 100 100 100 100 100 100 100 100 100 100 100 100 100 100 100 100 100 100 100 100 100 100 100 100
100 82 76 93 98 100 100 100 100 100 100 100 100 100 85 100 100 100 100 100 100 100 100 100 98 93 100 100 100 100 100 100 100 100 100 100 100 100 100 100 100 100 100 100
100 99 98 92 89 100 100 100 100 100 100 100 100 89 87 100 100 100 100 100 95 70 99 100 98 84 90 100 100 100 100 100 100 100 100 100 100 100 100 100 100 97 83 99

GFSNW_prec_cloud_048.txt.gz
Cloud_Cover
40 5 100 9 54 99 100 100 100 100 28 99 90 100 100 100 100 100 100 100 100 99 86 88 100 100 100 100 70 100 100 100 100 28 49 82 94 77 90 100 47 78 36 34
5 5 48 6 24 100 100 100 100 100 98 99 100 100 100 100 100 100 100 100 100 100 98 89 100 100 100 100 100 100 100 100 100 100 98 36 97 67 75 85 90 71 99 10
34 5 3 48 58 92 100 100 100 100 100 100 100 100 100 100 100 100 100 99 96 100 88 84 99 99 98 100 100 100 100 100 66 83 59 21 77 5 13 79 100 92 56 13
6 5 1 5 26 97 100 100 100 100 100 100 100 100 100 100 100 100 82 100 56 58 92 100 100 96 99 100 100 100 100 98 76 84 33 22 34 97 100 100 56 100 42 100
64 5 5 6 8 86 100 100 100 100 100 100 100 100 100 100 99 100 100 79 72 49 59 100 100 100 100 100 100 100 100 100 100 100 49 13 97 88 100 100 100 100 100 100
18 5 5 99 94 89 100 100 100 100 100 100 100 100 100 100 100 65 100 86 89 91 100 100 100 100 100 100 100 100 100 100 100 86 9 60 100 100 100 100 100 100 96 100
4 4 5 5 8 94 100 100 100 100 100 100 100 100 100 100 100 100 83 77 66 97 100 100 100 100 100 100 100 100 100 100 100 94 99 100 100 100 100 100 100 99 100 100
5 5 5 74 69 100 100 100 100 100 100 100 100 100 100 50 18 48 85 53 54 100 100 100 100 100 100 100 100 100 100 100 98 100 100 96 100 100 100 100 100 100 100 96
5 5 5 8 100 100 100 100 100 100 100 99 71 79 88 91 90 78 87 66 100 99 100 100 100 100 80 99 100 100 100 100 100 100 100 98 99 96 100 100 100 100 100 100
3 6 4 5 90 100 100 100 100 100 100 100 100 70 84 97 74 81 99 100 100 98 100 100 94 65 66 64 98 100 100 100 100 100 100 81 100 100 100 100 100 100 100 100
5 5 32 5 14 90 100 100 100 100 100 99 100 100 69 19 35 90 95 100 100 100 100 100 98 88 99 25 82 100 98 98 100 100 100 100 92 98 100 100 100 100 100 100
5 5 5 10 5 52 94 100 100 100 100 90 93 79 100 100 100 100 100 100 100 100 100 100 100 100 96 5 10 90 98 100 100 100 92 91 99 68 98 92 100 100 100 100
39 98 5 5 90 100 91 100 100 100 100 100 100 100 100 100 100 100 100 100 100 100 100 98 100 100 56 5 98 91 100 100 98 100 100 100 100 100 100 100 100 100 100 100
56 100 54 6 87 83 82 88 100 100 100 100 100 100 100 100 100 100 100 100 100 100 100 100 94 40 30 61 99 100 100 100 100 91 100 92 100 77 83 100 84 99 100 100
100 94 98 100 94 6 22 96 100 100 100 100 100 100 100 100 100 100 100 100 100 100 100 100 100 61 28 100 100 100 100 100 100 100 100 58 38 41 25 32 80 99 100 100
100 100 21 5 5 43 40 99 100 100 100 100 100 100 100 100 100 100 100 100 100 100 100 100 100 100 100 100 100 100 100 100 100 100 8 96 49 66 77 99 90 100 100 100
100 100 96 50 11 56 99 98 100 100 100 100 100 100 100 100 100 100 100 100 100 100 100 100 100 100 100 100 100 100 100 100 100 100 100 100 100 100 100 100 100 100 87 100
100 97 95 100 100 67 99 100 100 100 100 100 100 100 100 100 100 100 100 100 100 100 100 100 100 100 100 100 99 100 100 82 100 100 100 100 95 83 100 100 100 100 100 100
100 50 94 80 79 89 100 100 100 100 100 100 100 100 100 100 100 100 100 100 100 100 100 100 100 100 100 100 99 100 100 100 100 100 100 100 98 96 98 94 100 100 100 100
87 80 97 98 86 100 100 100 100 100 100 100 98 100 100 100 100 100 100 100 100 100 100 100 100 100 95 100 90 100 100 100 100 100 100 100 100 100 100 100 100 90 100 100
100 100 100 100 100 100 100 100 100 100 99 100 100 100 100 100 100 100 100 100 100 100 100 100 100 98 100 100 100 100 100 100 100 100 100 100 100 100 100 100 100 100 100 100
100 100 100 100 100 100 100 100 100 100 100 100 100 99 100 100 100 100 100 100 100 100 100 100 100 100 100 100 100 100 100 100 100 100 100 100 100 100 100 100 100 100 100 100
98 100 100 100 100 100 100 100 100 100 100 100 100 95 100 98 94 100 100 100 100 100 100 100 100 100 100 100 100 100 100 100 100 100 100 100 100 100 100 100 100 100 100 100
100 100 100 100 100 100 100 82 90 92 100 100 100 100 100 100 100 100 100 100 100 100 100 100 100 100 100 100 100 100 100 100 100 100 100 100 100 100 100 100 100 100 100 100
100 100 88 100 91 93 100 100 100 100 100 100 100 100 100 100 100 100 100 100 100 100 100 100 100 100 100 100 100 100 100 100 100 100 100 100 100 100 100 100 100 100 98 95
100 92 76 89 93 89 100 100 100 98 100 100 100 100 98 100 100 99 100 100 100 100 98 100 100 100 100 100 100 100 100 99 92 74 79 93 100 100 100 100 100 90 98 100
100 86 94 78 40 39 99 98 100 100 100 100 100 95 94 98 100 100 100 100 95 100 100 100 100 100 100 100 100 100 100 100 100 100 100 73 50 44 33 76 100 100 97 100

GFSNW_prec_cloud_051.txt.gz
Cloud_Cover
7 5 5 8 5 16 100 100 100 100 68 96 95 100 100 100 100 100 100 100 100 100 100 100 100 96 96 57 85 100 99 67 90 60 77 40 98 62 76 100 16 70 46 83
5 5 5 5 5 95 100 100 100 100 42 98 100 95 100 100 100 100 100 100 100 100 100 100 100 100 52 17 46 98 66 77 85 86 56 28 77 89 100 99 76 9 94 18
5 5 5 5 5 95 100 100 100 100 100 100 100 100 100 100 100 100 100 100 100 100 100 81 100 100 38 69 93 100 80 100 26 13 98 100 99 76 16 76 88 58 41 36
5 4 6 5 2 85 100 100 100 100 100 100 100 100 100 100 100 100 100 100 100 100 95 79 78 100 77 100 100 100 100 100 82 100 100 100 100 79 65 100 58 99 32 93
2 0 5 5 1 40 100 100 100 100 100 100 100 100 100 100 100 100 100 100 100 100 64 59 83 80 100 96 100 100 100 100 100 100 100 100 70 72 100 100 96 100 86 81
3 2 5 5 5 64 100 100 100 100 73 100 100 100 100 100 100 96 100 100 100 100 99 80 94 57 70 100 98 100 100 100 100 100 83 96 96 91 100 100 100 100 100 91
5 5 5 5 5 33 94 100 100 100 100 100 98 63 89 93 84 99 100 100 100 100 95 55 83 81 98 100 83 97 100 98 100 48 93 100 98 89 100 100 100 100 100 98
0 0 4 5 5 88 86 92 100 100 100 100 100 100 100 100 70 100 99 59 97 100 99 100 100 100 100 98 99 100 97 100 100 100 100 66 100 100 100 100 100 100 100 100
7 3 5 5 5 36 81 100 100 100 100 98 97 97 87 100 88 92 96 60 100 100 100 100 100 100 100 94 100 100 100 100 100 87 100 88 100 95 88 100 100 100 100 93
5 5 5 5 14 22 48 100 100 100 100 98 56 100 86 79 67 74 40 95 98 95 100 100 100 100 100 100 100 100 100 100 100 97 100 99 100 100 98 100 100 100 100 100
7 5 5 5 97 16 55 100 100 100 100 100 99 100 100 100 97 96 99 100 95 100 100 100 100 99 96 99 93 100 100 100 100 100 100 100 100 83 85 100 80 100 100 100
5 5 7 5 43 97 100 100 100 100 100 100 100 100 89 58 71 92 97 65 58 97 100 100 88 97 85 78 100 100 100 100 72 99 100 93 100 75 92 100 99 98 100 100
18 16 45 95 6 100 98 90 100 100 100 88 88 100 100 100 100 100 100 100 100 100 88 100 82 96 93 100 100 100 100 56 99 100 98 85 100 98 89 100 100 98 100 100
77 74 93 20 27 5 90 92 100 100 100 95 100 100 100 100 100 100 99 100 100 100 100 100 100 92 86 92 99 80 69 100 100 100 100 100 94 100 100 100 100 98 38 80
84 99 48 98 6 68 16 50 100 100 100 100 100 100 100 100 100 100 100 100 100 100 100 100 100 72 96 6 5 68 100 100 100 100 100 100 100 79 83 10 10 14 31 35
91 97 89 98 11 10 84 100 100 100 100 100 100 100 100 100 100 100 100 100 100 100 100 100 81 83 95 50 91 100 100 100 100 100 100 58 6 14 100 63 48 48 78 88
100 100 70 57 5 28 100 100 100 100 100 100 100 100 100 100 100 100 100 100 100 100 100 100 100 75 51 76 100 100 100 100 100 72 8 25 63 100 100 93 100 100 100 100
100 8 57 36 57 32 96 100 100 100 100 100 100 100 100 100 100 100 100 100 100 100 100 100 100 100 100 100 100 100 100 100 100 98 23 98 90 100 62 99 100 100 97 92
99 49 62 85 84 94 100 100 100 100 99 100 100 100 100 100 100 100 100 100 100 100 100 100 100 100 100 100 100 100 100 100 100 79 56 90 63 92 98 95 100 99 100 100
100 99 98 100 96 99 100 100 100 100 100 100 100 100 100 100 100 100 100 100 100 100 100 100 100 100 100 100 100 100 100 100 29 100 33 100 100 100 100 98 87 100 100 100
100 100 100 100 100 100 100 100 100 100 100 91 100 100 100 100 100 100 100 100 100 100 100 100 100 100 100 100 100 100 99 70 100 100 100 100 100 99 100 100 100 100 100 100
100 100 100 100 100 100 100 100 100 100 100 99 100 100 100 100 100 100 100 100 100 100 100 100 100 100 100 94 59 44 79 100 100 100 100 100 100 100 100 100 100 100 100 100
100 100 100 100 96 100 100 100 100 100 100 100 100 100 100 100 100 100 100 100 100 100 100 100 100 100 100 100 100 100 100 97 100 100 100 100 100 100 100 100 100 100 100 100
100 100 100 100 100 100 100 100 100 100 100 100 100 100 100 100 100 100 100 100 100 100 100 100 100 100 93 99 100 100 100 100 100 100 100 100 100 100 100 100 100 100 98 90
100 100 100 100 100 82 96 99 85 95 100 100 100 100 100 100 100 100 100 100 100 100 100 100 100 100 100 100 100 100 100 100 100 100 100 100 100 100 100 100 100 100 95 89
100 100 99 100 100 100 84 100 100 99 100 100 100 100 100 100 100 100 100 97 77 100 100 100 100 100 100 100 100 100 100 100 93 100 100 100 100 100 99 83 92 99 87 100
92 98 99 87 84 99 99 99 90 100 100 100 100 100 100 100 100 100 98 84 100 100 100 100 100 100 100 100 100 100 100 100 91 80 96 100 100 100 96 61 74 98 100 100

GFSNW_prec_cloud_054.txt.gz
Cloud_Cover
5 7 5 10 50 64 99 100 100 100 100 100 100 100 100 100 100 100 100 100 100 100 100 100 100 100 100 99 99 49 98 100 100 16 65 48 36 67 22 84 34 22 5 22
36 9 5 5 22 74 100 100 100 94 81 100 100 100 100 100 100 100 100 100 100 100 100 95 86 100 92 100 99 100 66 53 96 97 97 97 81 98 99 76 67 6 76 30
6 5 4 5 3 93 100 100 100 100 99 100 100 100 100 100 100 100 100 100 100 100 100 100 100 100 71 88 100 100 74 100 5 94 98 71 64 6 42 100 91 13 18 5
64 7 5 5 1 86 84 100 100 100 100 100 100 100 100 100 100 100 99 100 100 100 100 100 100 100 98 83 100 100 64 47 38 5 5 40 96 78 99 24 5 79 36 13
5 5 5 5 1 53 98 100 100 100 100 100 100 100 100 100 100 100 100 100 100 100 100 100 87 100 100 100 100 100 95 94 92 68 100 100 66 41 5 30 44 5 19 32
44 40 4 5 0 24 100 100 100 100 100 100 100 100 100 100 100 100 91 100 100 100 100 100 100 99 96 93 100 100 98 86 75 67 100 96 38 48 26 23 84 96 90 94
8 84 33 5 2 15 99 100 100 100 99 79 92 90 100 100 100 99 100 100 100 100 100 100 100 100 84 62 100 100 96 100 86 48 90 76 73 66 58 100 100 100 100 100
84 60 14 5 7 5 36 100 100 100 100 100 90 100 100 100 84 100 100 100 100 100 100 100 100 100 99 96 100 100 100 100 83 48 55 59 84 86 92 81 83 100 100 100
97 5 5 5 4 5 18 100 100 100 100 64 99 100 95 100 100 100 100 100 100 100 100 100 100 100 99 98 91 100 100 100 100 97 74 46 100 98 100 84 99 99 100 100
41 14 15 5 4 5 5 100 100 100 100 100 92 77 81 100 92 99 100 100 100 100 100 100 100 100 99 86 84 100 100 100 100 100 88 84 100 100 84 76 75 100 94 100
5 41 6 5 5 26 26 100 100 100 100 75 52 99 97 93 87 83 98 99 100 100 100 100 81 99 98 65 71 94 100 100 100 100 98 72 99 100 100 99 100 88 100 100
12 58 96 16 21 5 6 100 100 100 100 93 30 100 100 98 99 92 100 63 74 77 98 100 100 99 98 98 100 100 100 100 100 100 100 78 100 95 77 94 78 88 98 93
100 99 100 99 99 22 20 74 100 100 100 100 81 98 66 57 24 42 74 86 97 67 100 100 96 67 56 97 100 98 100 100 100 100 97 100 100 99 100 31 26 72 100 94
14 100 100 100 100 8 25 42 98 100 100 100 100 100 100 100 100 100 83 99 91 98 96 100 100 99 52 53 89 100 100 100 100 97 98 100 100 95 98 68 100 100 100 60
28 92 100 100 88 95 100 100 98 100 100 100 100 100 100 100 100 86 100 100 99 100 100 100 100 100 55 77 100 100 100 100 100 96 100 100 95 100 100 100 97 11 29 75
100 100 100 90 94 100 78 99 100 100 100 100 100 100 100 91 100 100 100 100 100 100 100 100 100 86 100 95 98 100 100 100 100 100 100 100 100 94 81 98 98 56 75 49
100 100 98 65 56 99 94 100 100 99 100 100 100 100 100 100 100 100 100 100 100 100 100 100 100 72 98 84 37 67 36 100 100 100 100 100 95 87 51 100 80 87 96 100
100 58 33 30 27 98 72 100 100 100 100 100 100 100 100 100 100 100 100 100 100 100 100 100 94 71 95 33 26 98 100 100 100 100 100 59 5 29 100 100 90 96 92 100
100 100 7 91 96 100 87 100 100 94 100 100 100 100 100 100 100 100 100 100 100 100 100 100 100 100 73 68 100 100 100 100 100 100 94 28 23 100 99 100 84 100 100 100
100 100 99 92 99 100 100 100 100 100 100 100 100 100 100 100 100 100 100 100 100 100 100 100 100 100 100 100 100 100 100 100 100 100 100 51 99 94 100 100 100 100 100 100
100 100 100 100 100 100 100 100 100 100 100 100 100 100 100 100 100 100 100 100 100 100 100 100 100 100 100 100 100 100 100 100 100 100 18 91 94 100 100 100 100 100 100 100
100 100 100 100 100 100 100 100 100 100 100 100 100 100 100 100 100 100 100 100 100 100 100 100 100 100 100 100 100 100 100 100 100 100 100 99 100 100 100 100 100 100 100 100
100 100 100 100 100 100 100 100 100 100 100 100 100 100 100 100 100 100 100 100 100 100 100 100 100 100 100 100 100 100 100 81 100 87 100 100 100 100 100 100 100 100 100 100
100 100 100 100 100 96 100 100 100 100 100 100 100 100 100 100 100 100 100 100 100 100 100 100 100 100 100 100 100 100 100 89 99 100 100 100 100 100 100 100 100 100 100 100
100 100 98 100 93 99 100 100 100 100 100 100 100 100 100 100 100 100 100 100 98 100 100 100 100 100 100 100 100 100 100 100 100 100 100 100 100 100 100 100 100 100 100 99
100 100 100 100 100 100 100 100 100 100 100 100 100 100 100 100 100 100 100 100 100 100 100 100 99 92 98 98 88 88 100 100 100 100 100 100 100 100 100 100 100 100 100 100
100 91 99 100 99 100 100 99 100 100 100 100 100 100 100 100 100 98 100 100 100 100 100 100 100 100 100 100 100 100 100 100 100 100 100 100 100 100 100 100 100 100 100 100

GFSNW_prec_cloud_057.txt.gz
Cloud_Cover
100 100 65 5 5 12 100 100 99 98 100 100 100 100 100 100 100 100 99 85 100 100 100 100 100 100 100 100 100 100 100 100 100 100 100 100 100 100 100 100 100 100 99 95
100 100 24 5 5 78 100 100 100 84 23 100 98 100 100 100 100 100 100 92 93 92 75 100 99 32 51 100 100 100 100 100 100 100 100 98 91 74 46 64 64 41 70 18
100 100 97 0 5 76 100 100 87 54 94 96 100 100 100 100 100 100 100 100 100 100 100 100 100 100 100 100 100 100 100 98 13 77 68 64 47 13 46 100 93 49 9 16
100 100 32 4 5 50 98 91 99 100 100 100 95 100 100 100 100 100 100 100 100 100 100 95 99 99 100 100 100 100 100 53 20 73 54 53 41 35 15 10 5 81 4 12
100 87 5 5 4 49 100 100 100 100 100 54 60 100 100 100 100 100 99 100 100 100 100 100 100 100 100 98 98 100 98 53 48 5 5 5 6 8 28 65 100 16 6 5
100 53 59 7 2 21 100 100 100 100 100 100 70 100 100 100 100 100 99 100 100 100 100 100 100 100 100 100 60 43 100 55 76 16 6 90 91 24 85 86 27 38 53 72
100 80 86 73 3 41 98 100 100 100 100 88 85 97 100 100 100 91 100 80 100 100 100 100 100 100 95 81 100 87 92 100 100 65 96 100 92 100 18 5 54 76 100 94
99 88 100 5 2 6 36 100 100 100 100 75 99 84 86 100 100 100 100 100 100 100 100 100 100 100 100 100 100 100 100 100 68 100 100 100 21 6 83 75 96 100 100 100
99 48 98 5 4 5 6 100 100 100 100 100 100 91 29 28 100 100 100 100 100 100 100 100 100 100 100 91 96 100 100 100 100 99 99 78 67 5 85 100 91 100 82 97
96 34 24 5 5 3 5 100 100 100 100 95 99 97 88 100 100 100 100 100 100 100 100 83 97 100 96 82 17 81 100 100 100 100 94 38 38 71 99 79 64 93 87 100
41 80 6 5 5 5 5 48 100 100 100 99 64 94 97 81 58 100 100 100 100 100 100 89 89 63 57 48 40 44 84 95 100 100 97 50 7 96 94 80 99 100 95 95
100 48 11 5 40 95 5 65 100 100 100 100 62 54 100 79 56 59 100 100 78 98 72 74 99 77 63 68 98 58 85 77 31 25 95 13 70 100 100 98 86 97 57 65
69 25 5 5 38 99 15 72 100 100 100 100 100 17 80 35 74 50 97 93 100 99 18 95 95 47 7 31 20 87 17 100 53 95 45 86 100 100 100 80 51 42 6 40
66 15 27 10 72 100 30 99 100 100 100 100 77 95 100 92 31 12 29 62 95 100 99 91 100 100 38 78 48 81 94 79 33 31 94 100 100 100 89 68 16 20 6 51
79 100 94 92 100 95 15 69 86 100 100 100 100 100 100 79 46 33 57 72 98 100 100 100 100 99 98 60 92 57 74 65 60 100 100 100 98 100 100 25 76 88 71 31
79 87 13 84 100 96 24 100 100 100 100 100 100 100 69 98 97 98 98 98 100 100 100 100 100 88 100 100 100 100 97 100 100 100 100 98 100 100 100 71 93 83 80 67
54 97 93 100 89 53 89 100 100 100 100 100 100 100 100 100 100 100 100 100 100 100 100 100 99 100 100 81 81 100 95 100 100 100 78 100 100 100 79 100 99 49 95 95
100 98 38 94 80 100 100 100 100 100 100 100 100 100 100 100 100 100 100 100 100 100 100 100 98 100 100 98 28 54 62 100 100 87 65 100 100 100 98 99 23 30 64 100
99 99 86 52 100 100 100 100 100 100 100 100 100 100 100 100 100 100 100 100 100 95 100 100 100 92 100 84 89 75 84 100 99 80 100 100 100 100 78 18 100 99 85 98
100 98 100 100 100 100 100 100 100 100 100 100 100 100 100 85 100 100 100 100 100 100 100 100 100 100 100 100 96 30 38 100 100 100 100 100 48 5 94 100 33 71 100 100
100 100 100 100 100 100 100 100 100 100 100 100 100 100 100 100 100 100 100 100 100 100 100 100 100 100 100 97 89 92 100 100 100 100 100 100 88 87 71 82 91 100 100 100
97 100 100 100 100 100 100 100 100 100 100 100 100 100 100 100 100 100 100 100 100 100 100 100 100 100 100 98 100 100 100 100 100 100 100 100 100 100 99 100 100 100 100 100
100 100 100 100 100 100 100 100 100 100 100 100 100 100 100 100 100 100 100 100 100 100 100 100 100 100 100 100 100 100 100 100 100 100 100 100 100 100 100 100 100 100 100 100
100 100 100 100 100 94 100 100 100 100 100 100 100 100 100 100 100 100 100 100 100 100 100 100 100 100 100 100 100 100 100 100 100 100 100 100 100 100 100 100 100 100 100 100
100 100 95 100 99 100 100 100 100 100 100 100 100 100 100 100 100 100 100 100 100 100 100 100 100 100 100 100 100 100 100 100 100 100 100 100 100 100 100 100 100 100 100 100
100 100 100 100 100 100 100 100 100 100 100 100 100 100 100 100 100 94 100 100 99 100 100 100 100 100 100 100 100 100 100 100 100 100 100 100 100 100 100 100 100 100 100 100
100 93 100 100 100 100 100 100 100 100 98 100 100 100 100 100 100 100 100 99 98 100 100 100 100 99 100 100 100 100 100 100 99 100 100 99 100 100 100 100 100 100 100 100

GFSNW_prec_cloud_060.txt.gz
Cloud_Cover
72 82 49 100 51 5 34 38 100 100 98 94 100 100 99 100 100 100 100 95 99 100 100 100 100 100 76 100 100 100 100 100 100 100 100 100 100 100 55 6 15 48 68 95
26 29 100 99 3 82 88 87 91 37 15 100 100 100 100 100 100 100 100 83 81 61 100 99 49 32 50 100 100 100 100 100 100 100 100 100 100 100 80 48 100 99 98 100
80 41 85 100 3 72 100 63 51 21 86 100 100 100 100 100 100 100 98 94 100 88 100 90 73 99 100 100 100 100 100 100 100 100 100 100 100 100 100 100 100 100 100 100
100 98 100 97 3 30 91 62 90 100 75 96 94 98 100 100 100 69 79 100 100 100 100 100 99 100 100 100 100 100 100 100 100 100 100 100 100 100 100 100 62 93 6 37
100 100 100 9 4 25 100 92 100 100 100 100 69 100 100 100 100 100 100 100 100 97 100 100 100 100 100 100 100 100 100 100 100 100 100 100 100 64 76 26 5 39 29 38
87 100 100 38 6 6 95 100 100 100 99 97 99 93 100 100 100 100 100 100 100 100 100 100 100 100 100 100 100 100 100 100 100 100 100 100 99 54 55 10 31 84 54 5
100 100 100 62 8 58 68 100 100 100 100 95 91 90 98 100 100 100 93 100 100 100 100 100 100 100 100 100 100 100 100 100 100 100 100 100 95 6 12 18 92 96 98 88
100 100 100 29 5 7 21 100 100 100 100 99 70 96 100 100 100 100 100 100 100 100 100 100 100 100 100 100 100 100 100 100 100 98 100 100 72 31 93 86 74 97 100 100
100 100 100 54 5 24 5 100 100 100 100 93 80 38 59 96 100 100 95 100 100 100 69 80 90 100 99 100 100 100 100 100 87 100 100 92 57 100 86 63 100 100 100 95
100 100 100 5 16 40 4 82 100 100 100 82 100 74 19 26 100 100 78 100 100 100 100 87 98 97 98 66 100 91 100 100 100 100 100 81 42 11 98 90 97 77 98 100
100 100 100 70 100 59 6 31 96 100 100 96 39 100 81 50 49 92 98 80 99 100 100 100 98 58 78 90 98 86 96 95 83 96 100 78 6 16 99 99 100 90 75 56
100 100 66 86 63 98 42 25 93 100 100 100 88 100 100 85 61 92 61 78 66 60 87 64 36 79 15 51 86 70 78 84 78 56 32 17 71 86 99 100 91 63 19 91
100 100 43 6 72 65 90 41 95 100 100 100 88 5 35 69 66 86 100 82 100 100 88 68 71 74 5 36 54 100 78 78 39 73 44 56 78 98 100 100 77 34 72 76
65 100 93 98 98 95 93 35 94 98 100 100 98 78 61 54 71 72 23 17 18 80 100 100 96 100 12 75 83 97 91 77 32 45 54 55 91 87 100 100 83 97 92 63
100 100 80 13 98 100 69 68 94 100 100 100 100 100 57 62 6 15 34 74 94 100 100 96 99 74 89 74 26 11 53 14 51 89 95 96 54 94 100 99 98 99 86 90
100 87 98 100 100 100 41 99 79 97 100 100 100 98 100 100 99 83 98 100 100 100 100 100 100 100 94 73 100 62 7 21 45 98 64 83 96 100 100 100 99 71 95 78
96 100 97 85 98 76 90 100 100 100 100 100 100 100 100 99 100 100 100 100 100 100 100 100 100 96 100 100 77 97 62 41 54 77 79 25 99 100 100 100 100 74 64 95
90 96 100 96 97 90 98 100 100 100 100 100 100 100 58 92 100 100 100 100 100 100 100 100 100 100 100 100 100 94 83 75 67 66 32 83 100 100 100 100 100 35 36 47
15 81 92 89 82 100 100 100 100 100 100 100 100 99 100 100 100 100 100 100 100 100 100 100 100 100 100 100 100 100 100 91 100 100 98 98 100 100 100 95 59 74 51 18
52 35 99 96 100 100 100 100 100 100 100 100 100 100 100 100 100 100 100 100 100 100 100 100 100 100 100 100 100 72 7 74 100 53 100 100 100 100 100 100 60 100 7 52
100 100 100 100 100 100 100 100 100 100 100 100 100 100 100 100 100 100 100 100 100 100 100 100 100 100 100 99 41 53 56 50 91 88 100 100 100 100 100 82 100 100 81 73
96 97 100 100 100 100 100 100 100 100 100 100 100 100 100 100 100 100 100 100 100 100 100 100 100 100 100 16 50 100 100 100 100 100 100 100 100 100 100 100 100 100 100 100
100 100 100 100 100 100 100 100 100 100 100 100 100 100 100 100 100 100 100 100 100 100 100 100 100 100 100 93 100 100 100 100 100 100 100 100 100 100 100 100 100 100 100 100
100 100 100 100 100 91 100 69 85 98 100 100 100 100 100 100 100 100 100 100 100 100 100 100 100 100 100 100 100 100 100 100 100 100 100 100 100 100 100 100 100 100 100 100
100 100 99 100 99 100 100 100 100 100 100 100 100 100 100 100 100 100 100 100 100 100 100 100 100 100 100 100 100 100 100 100 100 100 100 100 100 100 100 100 100 100 100 100
100 100 95 100 100 100 100 100 100 100 100 100 100 100 100 100 100 99 100 100 100 100 100 100 100 100 100 100 100 100 100 100 100 100 100 98 100 100 100 100 100 100 100 100
100 70 57 100 100 100 100 100 100 100 100 100 100 100 100 100 100 100 100 100 94 84 98 100 100 100 100 100 100 100 100 100 100 100 100 100 100 100 100 100 100 100 100 100

GFSNW_prec_cloud_063.txt.gz
Cloud_Cover
95 100 80 100 30 100 8 36 38 25 8 58 100 100 100 100 100 100 100 60 99 96 27 65 86 100 100 100 100 100 100 99 96 100 100 100 100 100 100 100 100 100 100 100
85 100 97 100 5 100 66 60 22 100 46 93 66 98 100 100 100 100 84 48 81 79 70 65 96 100 100 100 100 100 91 51 98 100 100 100 100 100 100 100 100 100 100 100
99 100 27 40 5 94 27 55 48 13 16 17 79 89 100 100 98 95 76 99 5 13 77 100 100 100 100 100 100 100 100 100 100 100 100 100 100 100 100 100 100 100 100 42
100 100 80 29 5 22 24 94 60 98 79 9 98 100 100 100 97 80 46 46 100 99 100 100 100 100 100 100 100 100 100 100 100 100 100 100 100 100 98 94 16 93 10 86
100 100 75 5 54 16 93 99 100 100 100 100 100 100 100 100 100 98 100 76 100 100 100 99 100 100 100 100 100 100 100 100 100 100 100 100 100 100 100 100 84 100 100 6
100 100 100 62 85 56 95 100 100 100 96 89 82 100 100 100 100 83 92 99 100 100 100 100 100 100 100 100 100 100 100 100 100 100 100 100 100 100 100 100 100 100 100 88
100 100 100 58 100 78 46 100 100 100 96 100 82 97 100 100 100 100 94 100 100 100 100 100 100 100 100 100 100 100 100 100 100 100 100 100 88 100 100 100 100 90 100 100
100 100 100 94 71 5 12 100 100 100 97 100 100 100 100 100 100 100 100 100 100 100 100 100 100 100 100 100 100 100 100 100 100 100 100 80 91 70 64 68 59 82 97 100
100 100 100 100 15 5 5 64 100 100 100 52 100 88 83 100 100 100 100 100 100 78 54 79 96 79 85 95 100 100 100 99 75 100 100 100 100 90 31 73 92 100 94 100
100 100 100 100 100 88 49 66 98 100 100 98 96 97 93 99 100 100 100 100 100 87 98 76 57 68 99 90 100 100 98 100 100 100 97 80 51 46 75 100 98 98 77 96
100 100 100 100 100 100 100 99 64 100 100 100 87 100 100 96 100 100 100 100 100 100 100 100 100 100 100 100 100 100 92 89 90 81 91 52 19 67 83 81 96 87 84 92
100 100 100 100 100 100 100 100 19 100 100 99 92 100 100 100 100 78 100 82 100 99 100 81 98 99 100 98 97 100 100 64 64 38 40 18 62 90 98 97 100 87 74 60
100 100 100 100 100 100 100 100 49 26 70 100 93 21 84 100 100 75 84 92 89 99 99 99 82 37 50 52 97 100 92 97 100 68 63 56 36 62 84 94 78 90 65 42
84 100 100 100 100 100 100 100 91 78 100 100 100 100 100 100 100 34 65 82 45 82 100 90 100 82 84 52 99 100 66 84 83 51 91 62 81 53 45 96 68 86 86 54
67 55 94 18 59 100 100 100 22 69 89 100 100 100 100 100 73 43 30 46 91 92 100 99 99 41 81 13 65 8 83 97 51 99 100 93 81 65 93 93 100 94 59 83
63 18 68 100 100 100 100 38 96 81 100 100 100 98 90 100 98 88 99 100 100 100 100 98 100 80 82 78 64 70 100 100 90 79 91 88 93 100 98 45 100 94 90 94
11 69 98 87 100 84 48 19 100 100 100 100 100 99 85 98 100 99 97 81 100 100 100 100 100 100 100 100 82 100 100 96 99 98 100 97 98 100 100 84 100 94 90 73
64 67 100 100 100 100 83 100 100 100 100 100 100 100 100 99 100 100 100 93 100 100 100 100 100 100 100 100 91 82 59 82 73 73 73 96 94 100 100 100 100 100 88 66
52 56 100 91 84 95 100 100 100 100 100 100 100 99 94 97 99 100 100 100 100 100 100 98 99 100 100 100 97 75 100 100 100 95 100 100 100 100 100 100 100 100 100 99
100 100 36 78 100 100 100 100 100 100 100 100 100 100 100 100 100 100 100 100 100 100 100 100 100 100 100 100 99 100 100 100 69 100 59 89 100 100 100 95 100 100 100 44
100 100 100 100 100 100 100 100 100 100 100 100 100 100 100 100 100 100 100 100 100 100 100 100 100 100 100 99 98 87 100 100 100 100 93 81 99 100 100 100 100 100 99 16
92 100 100 100 100 100 100 100 100 100 100 100 100 100 100 100 100 100 100 100 100 97 100 100 100 100 100 86 91 55 99 100 100 100 100 91 100 96 93 100 100 100 100 84
98 100 100 100 100 100 100 100 100 100 100 100 100 100 100 100 100 100 100 100 100 100 100 100 100 100 100 100 59 5 82 100 100 100 100 99 100 100 100 100 100 100 99 99
100 100 100 100 100 100 100 100 100 99 100 100 100 100 100 100 100 100 100 100 100 100 100 100 100 100 100 100 100 100 100 100 100 100 100 100 100 100 100 100 100 100 100 100
100 100 100 100 100 100 100 100 100 100 100 100 100 100 100 100 100 100 99 100 100 100 100 100 100 100 100 100 100 100 100 100 100 100 100 100 100 100 100 100 100 100 100 100
100 100 100 73 100 100 100 100 100 100 100 100 100 100 100 100 100 100 92 99 90 100 100 100 100 100 100 100 100 100 100 100 100 100 100 100 100 100 100 100 100 100 100 100
100 100 100 100 100 100 100 100 100 100 100 100 100 100 100 100 100 100 100 100 100 92 99 100 100 100 100 100 100 100 100 100 100 100 100 100 100 100 100 100 100 100 100 100

GFSNW_prec_cloud_066.txt.gz
Cloud_Cover
41 94 13 56 100 100 69 28 8 5 5 88 48 100 100 100 100 100 100 100 100 30 97 69 100 99 100 100 100 100 100 100 100 100 100 100 100 100 100 100 100 100 100 39
48 67 60 68 98 100 51 100 41 5 5 94 100 60 96 100 100 97 77 50 82 67 62 88 100 100 100 100 100 100 100 95 99 100 100 100 100 100 100 100 100 100 100 100
87 90 95 100 86 100 9 89 48 5 5 100 100 100 100 100 100 31 22 92 80 29 91 96 100 100 100 100 100 100 100 100 100 100 100 100 100 100 100 100 100 100 93 100
27 80 55 100 100 100 66 81 67 96 77 99 100 100 100 98 62 24 5 7 51 56 58 100 100 100 100 100 100 100 100 100 100 100 100 100 100 100 100 100 100 100 76 75
58 33 6 97 82 100 52 97 100 100 100 100 100 100 100 96 37 5 5 13 67 40 93 86 44 17 100 100 100 100 100 100 100 100 100 100 100 100 100 100 100 100 100 67
88 55 8 68 100 85 45 100 100 100 100 100 80 100 100 99 92 99 34 100 100 100 100 100 100 100 100 100 100 93 100 100 100 100 100 100 100 100 100 100 100 100 100 77
23 90 57 29 100 100 7 100 100 100 97 95 100 100 100 100 98 96 94 92 100 100 100 100 100 100 100 100 100 100 100 100 100 100 100 100 100 100 100 100 97 100 99 100
100 66 94 69 37 100 5 68 100 100 100 100 100 100 100 98 85 82 70 65 100 100 100 100 100 100 100 100 100 100 100 100 100 100 100 96 100 100 100 100 100 100 98 99
73 46 99 94 96 100 5 44 100 100 100 93 100 100 100 100 100 96 71 85 90 99 100 100 100 88 99 88 98 100 100 100 100 100 100 75 82 100 100 100 100 100 93 100
43 98 100 99 97 100 6 5 6 98 100 97 98 100 97 100 100 100 100 100 100 97 100 100 71 63 47 79 95 100 98 97 86 71 71 90 100 76 93 95 89 93 83 81
97 90 100 100 100 99 24 73 36 91 100 66 100 97 99 100 100 100 100 100 100 100 96 77 67 66 55 83 94 43 46 97 100 99 29 49 60 25 34 56 100 100 100 98
5 57 30 100 100 100 99 17 100 97 100 52 60 91 97 97 100 100 100 100 100 100 98 88 83 97 100 100 100 98 98 88 82 22 20 8 75 82 85 87 92 100 100 96
5 5 80 95 100 100 100 100 100 100 100 56 76 45 100 100 100 100 96 99 100 100 91 87 44 51 68 79 99 90 36 70 45 42 32 43 53 5 20 72 97 100 98 76
16 5 19 32 100 100 100 100 100 100 100 100 79 99 96 98 100 82 84 65 80 95 85 68 75 76 35 73 96 70 30 49 67 55 100 99 90 100 99 92 88 98 97 80
26 18 5 5 100 100 97 100 100 100 100 100 100 89 100 100 100 100 99 100 99 99 94 95 95 86 73 12 30 9 99 33 53 100 93 51 7 34 48 85 80 83 100 90
100 96 41 36 89 73 100 100 100 100 100 100 100 98 97 100 100 100 100 100 100 100 100 100 100 99 66 85 92 86 39 89 69 100 77 72 70 81 80 46 69 77 100 82
85 97 100 77 96 96 87 80 100 99 100 100 100 100 100 100 100 100 100 100 99 100 100 100 100 78 100 100 100 99 42 56 100 99 100 95 87 79 100 77 82 76 84 98
97 95 91 98 100 100 100 20 99 100 100 100 100 100 100 100 100 100 98 98 100 92 100 100 100 100 100 100 87 71 14 18 55 95 61 66 93 91 100 100 68 80 87 99
100 40 85 88 63 100 86 97 100 100 100 100 100 100 100 100 100 100 100 100 100 100 100 100 100 100 100 100 100 100 93 36 67 95 100 100 100 100 100 100 88 100 100 100
100 88 98 98 46 100 100 100 100 100 100 100 100 100 100 100 100 100 100 100 100 100 100 100 100 100 100 100 100 100 100 100 100 96 69 87 88 100 100 100 100 77 85 100
100 100 100 100 100 100 100 100 100 100 100 100 100 80 98 100 100 100 100 100 100 100 100 100 100 100 100 100 100 95 100 91 100 78 76 88 73 70 83 100 100 76 91 100
100 100 100 100 100 100 100 100 100 100 100 100 100 100 100 100 100 100 100 100 100 100 100 100 100 93 92 99 86 30 5 93 100 100 100 100 100 100 100 100 100 100 100 100
100 100 100 100 100 100 100 100 100 100 100 100 100 100 100 100 100 100 100 100 100 100 100 96 69 100 97 98 100 96 86 100 100 100 100 100 100 100 100 100 100 100 100 100
100 100 100 100 100 100 100 100 100 100 100 100 100 100 100 100 100 100 100 100 100 100 100 100 100 100 100 100 100 100 100 100 100 100 100 100 100 100 100 100 100 100 100 100
100 100 100 100 100 100 100 100 100 100 100 100 100 100 100 100 100 100 100 100 100 100 100 100 100 100 100 100 100 100 100 100 100 100 100 100 100 100 100 100 100 100 100 100
100 100 100 100 100 100 100 100 100 100 100 100 100 100 100 100 100 100 100 100 100 100 100 100 100 100 100 100 100 100 100 100 100 100 100 100 100 100 100 100 100 100 100 100
100 100 100 100 100 100 100 100 100 100 100 100 100 100 100 100 100 100 100 100 100 100 100 100 100 100 100 100 100 100 100 100 100 100 100 100 100 100 100 100 100 100 100 100

GFSNW_prec_cloud_069.txt.gz
Cloud_Cover
5 5 5 19 9 99 36 3 5 5 5 74 53 100 100 100 100 100 100 100 100 100 26 39 52 63 100 94 100 100 100 100 100 100 100 86 95 100 98 73 100 100 100 75
5 5 5 5 11 100 72 100 45 12 5 91 100 100 100 100 100 100 73 5 33 14 82 93 6 46 100 83 99 62 82 100 100 100 100 97 100 100 100 93 100 100 100 44
5 6 5 5 73 19 26 9 8 54 100 95 100 100 100 81 65 47 19 5 5 5 22 50 42 100 100 100 100 100 93 100 100 100 100 100 100 100 100 99 100 90 64 52
5 5 5 5 40 15 39 5 37 98 100 100 100 100 100 98 82 26 61 6 6 47 72 99 99 100 100 100 100 100 100 92 100 100 100 100 100 100 100 100 100 81 82 99
5 5 5 5 76 5 69 93 100 100 100 100 100 100 100 100 22 5 5 17 53 100 100 100 100 100 100 100 100 100 100 100 100 100 100 100 100 100 100 100 100 100 100 100
5 38 48 5 33 21 90 100 99 100 91 100 100 100 100 99 99 92 71 86 95 94 100 100 100 100 100 100 100 100 100 100 100 100 100 100 100 100 100 100 100 100 100 100
12 100 49 6 71 85 74 100 100 88 73 100 100 100 100 100 83 98 100 86 98 96 66 49 80 100 100 100 100 100 100 100 100 100 100 100 100 100 100 100 100 100 95 100
5 32 25 86 88 68 100 100 100 100 100 96 100 100 100 100 98 70 10 32 69 74 89 70 83 100 100 100 100 100 100 100 100 100 100 100 100 100 100 100 100 100 87 87
5 5 55 81 94 8 98 100 100 87 100 97 100 100 100 97 98 66 59 53 74 96 100 100 96 91 100 95 100 100 100 100 100 100 86 66 86 98 67 93 100 98 77 70
6 5 13 78 80 100 32 87 100 100 100 73 86 100 100 100 100 95 97 100 100 89 100 100 100 79 98 94 69 100 100 100 100 100 100 100 84 100 99 93 89 100 96 93
5 8 6 16 84 100 85 32 99 96 100 100 84 97 100 100 100 100 100 100 100 100 100 97 92 74 56 98 100 100 100 100 99 100 99 50 94 100 100 100 100 100 100 100
6 5 5 5 8 100 100 99 94 100 55 100 57 20 99 100 100 100 100 100 100 100 100 100 100 100 92 95 97 98 70 42 44 70 98 74 100 100 100 100 100 100 91 92
34 48 13 5 5 64 100 100 98 94 88 99 100 54 64 51 99 100 100 100 100 100 100 100 100 100 100 98 74 64 83 82 74 66 85 86 80 59 18 17 76 97 92 100
100 43 8 17 5 7 84 100 95 100 100 100 99 96 64 94 72 100 100 100 100 100 100 100 95 78 21 68 68 42 80 92 73 74 96 70 75 81 68 100 34 99 99 97
85 5 18 92 5 5 73 40 94 85 100 100 90 100 93 41 99 100 100 100 100 100 100 100 99 100 95 12 29 50 9 52 50 94 100 36 81 93 30 75 74 97 99 100
100 18 97 97 98 99 99 99 94 96 100 100 100 100 100 66 100 100 100 100 100 100 100 99 100 100 92 64 84 89 64 51 61 100 99 20 53 12 24 29 5 80 97 100
85 62 94 58 100 100 100 73 100 100 100 100 100 100 96 100 96 100 100 100 100 100 100 96 100 92 99 100 99 8 100 33 94 100 100 100 100 76 14 14 5 6 79 91
95 64 20 17 97 96 100 100 100 100 100 100 100 100 100 100 100 100 100 100 100 100 100 100 100 100 100 100 91 71 97 53 73 99 94 93 81 75 52 56 53 34 57 56
100 28 51 100 75 100 100 86 100 100 100 100 100 100 96 82 88 100 100 98 100 100 100 100 93 99 100 100 92 95 100 100 99 62 43 84 74 100 100 100 100 98 58 55
100 54 100 100 100 94 86 100 100 100 100 100 100 100 100 100 100 100 99 100 100 100 100 100 100 100 100 99 100 100 69 100 100 100 72 73 99 100 90 100 74 50 100 94
100 100 100 100 100 100 100 100 100 100 100 100 100 99 99 100 100 100 100 100 100 100 100 100 100 100 100 100 99 100 100 90 99 100 100 68 48 96 96 71 77 92 100 100
100 100 100 99 100 100 100 100 100 100 100 100 100 100 100 100 100 100 100 100 100 100 100 100 100 100 98 100 92 81 47 96 100 99 100 100 100 100 100 91 81 90 100 100
100 100 100 100 100 100 100 100 100 100 100 100 100 100 100 100 100 100 100 100 100 100 100 100 100 100 100 91 74 84 100 100 100 100 100 100 100 100 100 100 100 98 100 91
100 100 100 100 100 100 100 100 100 100 100 100 100 100 100 100 100 100 100 100 100 100 100 100 100 100 100 100 100 100 100 99 100 100 100 100 100 100 100 100 100 100 100 100
100 100 100 100 100 100 100 100 100 100 100 100 100 100 100 100 100 100 100 100 100 100 100 100 100 100 100 100 100 100 100 100 100 100 100 100 100 100 100 100 100 100 100 100
100 100 100 100 100 100 100 100 100 100 100 100 100 100 100 100 100 100 100 100 100 100 100 100 100 100 100 100 100 100 100 100 100 100 100 100 100 100 100 100 100 100 100 100
100 100 100 100 100 100 100 100 100 100 100 100 100 100 100 100 100 100 100 100 100 100 100 100 100 100 100 100 100 100 100 100 100 100 100 100 100 100 100 100 100 100 100 100

GFSNW_prec_cloud_072.txt.gz
Cloud_Cover
4 5 5 5 5 100 18 78 9 7 5 25 68 100 100 100 100 98 68 48 98 100 80 12 5 100 100 100 100 61 97 31 100 100 53 100 100 100 100 99 88 100 100 100
5 5 2 5 0 68 88 100 7 12 5 100 100 85 100 96 65 64 5 5 15 5 5 10 21 100 100 100 100 55 40 13 96 100 68 81 74 64 100 55 100 100 100 100
5 5 4 5 3 0 30 35 75 7 65 100 100 97 100 93 5 8 5 5 5 5 4 4 5 23 100 57 37 56 100 100 16 13 57 85 100 100 100 100 100 100 86 94
2 5 5 5 5 0 12 45 91 95 98 92 100 100 94 91 71 5 5 5 5 5 6 7 19 5 11 90 100 75 7 98 99 100 100 99 99 100 96 75 43 83 100 100
2 5 5 5 5 5 30 100 100 100 100 97 100 98 95 81 25 11 5 5 5 15 46 100 100 100 100 23 33 92 100 100 100 100 57 54 100 100 97 84 100 99 94 100
4 2 5 5 5 12 5 95 100 100 30 73 87 100 100 97 95 37 5 5 5 9 17 99 100 99 100 100 100 100 100 94 95 100 100 100 100 100 100 100 49 27 16 100
5 0 5 5 5 45 53 91 100 100 86 98 100 100 100 100 100 62 34 5 24 13 84 32 55 49 92 100 100 100 100 100 100 100 100 100 100 100 100 100 100 100 100 100
5 2 2 5 5 47 98 76 76 100 100 94 100 100 100 100 100 25 5 10 26 5 52 74 25 8 30 68 66 38 71 87 99 100 100 100 100 100 100 100 100 100 100 100
99 4 4 5 5 56 85 99 100 71 100 77 100 100 100 100 62 31 77 15 36 62 45 57 50 56 42 72 90 65 96 46 43 63 96 100 100 100 100 100 100 99 100 100
5 7 4 5 1 5 78 100 100 88 99 80 63 100 100 100 100 79 59 45 78 95 84 95 69 52 59 71 100 57 55 60 42 38 54 58 100 100 100 100 100 98 86 96
5 6 5 5 5 5 25 57 100 100 72 66 70 87 98 96 100 100 95 91 85 96 99 100 100 100 74 79 65 94 100 100 100 96 100 100 100 100 100 99 96 96 93 88
18 6 17 23 5 5 5 98 97 100 100 91 100 51 33 92 98 94 100 100 100 96 93 83 100 100 98 99 100 73 88 94 100 100 93 100 100 100 100 100 100 100 100 100
9 100 23 21 28 8 13 89 94 100 100 57 62 93 56 39 94 84 89 96 100 100 97 87 100 100 100 96 76 73 58 34 68 94 98 61 55 83 58 96 100 100 100 100
91 100 34 61 6 43 10 92 95 73 100 96 57 99 100 89 84 100 92 100 100 100 100 100 99 92 90 100 100 100 92 74 65 67 58 82 66 91 98 97 50 81 77 85
100 100 100 45 6 9 5 40 42 47 100 94 84 98 100 28 99 92 100 100 100 100 100 100 100 100 92 98 98 100 97 87 33 43 64 44 24 89 34 29 24 83 100 100
66 100 100 95 100 100 98 100 54 89 98 99 100 98 100 83 99 100 100 100 100 100 100 100 100 100 68 73 51 11 33 33 60 100 40 77 68 14 78 100 59 5 70 100
32 88 99 35 45 95 100 100 100 24 99 97 98 100 100 100 100 100 100 100 100 74 88 99 99 93 100 88 100 12 5 6 55 95 92 85 100 98 58 44 70 64 69 14
5 35 62 39 100 99 100 100 91 98 100 97 100 100 100 100 100 100 100 100 100 100 94 90 97 100 100 100 77 62 92 89 63 98 94 81 100 100 87 82 73 50 58 32
64 71 10 94 94 84 100 100 100 100 99 100 100 100 100 100 100 100 100 100 100 100 100 88 98 100 100 100 92 52 97 100 100 100 100 100 62 85 89 94 98 96 42 40
100 96 94 100 98 100 100 100 100 100 100 100 100 100 100 100 100 100 100 100 100 100 96 98 100 100 100 100 100 100 100 100 91 86 100 100 100 72 61 97 100 97 60 23
100 100 100 100 100 100 100 100 100 100 100 100 100 100 100 100 100 100 100 100 100 100 98 100 100 100 100 100 100 100 100 100 100 100 99 100 100 93 78 67 70 78 71 68
100 100 100 100 100 100 100 100 100 100 100 100 100 100 100 100 100 100 100 100 100 100 100 100 100 100 100 91 99 99 89 97 98 100 100 100 92 96 100 99 100 82 75 70
100 100 100 100 100 100 100 100 100 100 100 100 100 100 100 100 100 100 100 100 100 100 100 100 100 100 100 91 86 98 92 81 94 92 98 100 100 100 100 100 100 100 91 84
100 100 100 100 100 100 100 100 100 100 100 100 100 100 100 100 100 100 100 100 100 100 100 100 100 100 100 99 95 100 96 100 96 96 100 100 100 100 100 100 100 100 100 100
85 100 100 100 100 100 100 100 100 100 100 100 100 100 100 100 100 100 100 100 100 100 100 100 100 100 100 100 100 100 100 100 100 100 100 100 100 100 100 100 100 100 100 100
100 100 100 100 100 100 100 100 100 100 100 100 100 100 100 100 100 100 100 100 100 100 100 100 100 100 100 100 100 100 100 100 100 100 100 100 100 100 100 100 98 100 100 100
71 100 100 100 100 100 100 100 100 100 100 100 100 100 100 100 100 100 100 100 100 100 100 100 100 100 100 100 100 100 100 100 100 100 100 100 100 100 100 100 100 100 100 100

GFSNW_prec_cloud_075.txt.gz
Cloud_Cover
6 4 2 5 2 5 5 32 45 5 4 28 98 93 100 100 96 90 61 99 31 100 99 100 100 100 100 100 100 100 100 100 100 100 100 99 100 100 100 100 100 100 100 86
0 3 3 1 1 8 94 17 5 5 44 93 100 95 99 87 93 84 24 31 13 5 6 54 100 100 100 100 100 100 54 100 100 100 100 52 99 100 100 100 100 100 100 99
0 24 10 0 5 4 72 87 100 28 92 99 100 100 100 96 65 46 5 5 5 5 5 18 95 100 100 100 100 97 6 22 100 100 94 100 99 100 100 100 100 100 100 100
0 8 10 0 0 5 51 81 98 100 98 74 100 94 89 99 68 30 5 40 5 5 7 52 100 100 100 98 100 100 5 73 100 100 100 100 100 100 100 100 100 100 100 99
0 9 39 0 0 4 26 91 100 100 100 100 100 95 58 100 83 48 15 8 5 5 5 12 95 100 100 100 30 37 72 65 82 100 55 68 98 99 98 23 81 100 100 100
13 3 3 4 0 4 18 87 84 100 95 100 100 100 100 97 99 35 14 16 41 5 11 4 7 92 100 100 100 100 68 88 88 60 39 40 22 23 16 13 68 100 100 100
79 5 0 5 0 1 35 100 97 97 100 100 100 100 100 100 100 99 35 22 69 5 56 29 13 6 5 15 37 49 34 41 47 53 95 88 31 94 75 57 46 38 90 100
5 5 5 3 5 5 30 76 100 100 57 77 100 99 100 100 100 99 98 25 6 5 27 94 97 95 91 49 62 40 6 20 100 100 38 100 58 33 64 86 99 99 100 100
24 60 5 5 5 5 27 64 100 100 98 90 99 100 100 100 100 100 84 82 64 15 5 47 94 96 81 97 96 24 27 31 60 47 51 8 100 100 100 100 100 100 100 100
53 5 23 5 2 4 8 83 77 100 100 52 28 99 99 100 100 100 88 61 66 75 45 83 89 100 36 98 94 96 85 70 65 91 100 75 80 96 97 100 100 100 100 100
57 53 5 5 5 5 13 45 22 84 100 100 74 24 100 100 100 100 98 77 78 90 68 64 94 89 73 94 97 99 83 100 87 96 100 100 100 100 100 87 85 100 100 100
6 10 28 12 5 5 5 47 48 100 100 96 70 100 27 80 99 98 100 100 98 89 94 37 87 96 100 100 99 100 100 88 76 97 100 100 100 100 100 99 98 84 76 71
50 80 87 100 13 5 5 11 68 58 90 58 100 100 69 19 56 90 60 96 100 100 98 98 91 96 70 95 86 100 73 100 100 100 100 100 99 100 100 100 100 100 92 85
5 5 16 100 100 10 5 67 61 86 88 85 100 90 100 81 61 100 88 89 100 100 100 100 100 98 90 100 100 99 66 30 50 55 86 75 68 60 73 88 93 100 100 100
5 10 5 27 50 83 52 30 52 93 93 80 35 100 61 100 42 86 100 93 100 100 100 100 100 100 94 93 93 100 95 45 28 88 51 70 69 50 49 55 54 83 31 82
5 8 74 97 5 6 86 100 36 94 100 100 76 95 100 100 93 82 99 98 100 100 100 100 100 100 100 100 99 79 83 22 18 78 84 52 70 58 46 61 66 70 62 54
12 24 65 98 17 23 97 98 93 98 100 100 66 96 100 100 100 100 100 99 100 100 100 100 92 98 98 100 98 14 19 69 54 91 99 92 75 58 77 80 46 21 52 29
5 6 99 56 10 78 96 100 100 100 100 100 100 80 100 100 100 100 87 100 100 100 100 97 95 83 100 100 71 79 93 85 63 86 100 91 100 100 100 100 100 60 5 5
5 5 94 98 95 94 95 67 100 100 100 100 93 100 100 100 100 100 100 100 100 100 100 100 74 64 95 100 96 63 100 91 98 100 100 100 100 100 100 100 100 100 62 59
5 21 93 100 100 100 100 100 100 100 100 100 100 99 100 100 100 100 100 100 100 100 100 100 98 93 34 76 100 86 100 100 100 100 96 100 100 100 100 100 100 100 100 98
16 14 96 92 82 100 100 100 100 98 100 100 100 100 100 100 100 100 100 100 100 100 100 100 100 66 98 59 100 100 100 100 100 100 100 99 100 100 94 100 100 100 100 99
41 43 98 98 92 100 100 100 100 100 100 100 100 100 100 100 100 100 100 100 100 100 99 100 100 76 92 96 76 98 100 96 90 93 88 99 100 100 94 78 100 100 96 98
55 98 100 100 100 100 100 100 100 100 100 100 100 100 100 100 100 100 100 100 100 100 100 100 100 100 100 100 52 79 91 85 84 79 84 98 98 100 100 100 100 100 100 100
97 89 100 100 100 100 100 100 100 100 100 100 100 100 100 100 100 100 100 100 100 100 100 100 100 100 100 100 100 100 100 100 100 100 100 100 100 100 100 100 100 100 100 100
44 72 94 100 100 100 100 100 100 100 100 100 100 100 100 100 100 100 100 100 100 100 100 100 100 100 100 100 100 100 98 81 100 100 99 100 100 100 100 100 99 100 100 100
100 91 87 100 90 96 100 100 100 100 100 100 100 100 100 100 100 100 100 100 100 100 100 100 100 100 100 100 100 100 100 100 100 99 100 100 100 100 99 100 100 99 100 100
100 46 84 100 99 100 100 100 100 100 100 100 100 100 100 100 100 100 100 100 100 100 100 100 100 100 100 100 100 97 90 100 100 100 100 100 100 100 100 100 100 98 97 99

GFSNW_prec_cloud_078.txt.gz
Cloud_Cover
2 2 2 0 2 91 6 5 48 5 5 62 100 100 100 64 100 71 100 82 96 99 100 100 100 100 100 100 100 100 100 100 100 100 100 100 100 100 100 100 100 99 100 100
0 3 0 0 1 88 100 59 82 36 5 97 100 100 100 99 23 49 36 22 6 89 100 100 100 100 100 100 100 100 100 100 100 100 100 100 97 100 100 100 100 100 100 94
1 0 0 0 4 22 29 90 83 96 28 89 100 100 94 100 92 47 7 28 14 88 36 100 100 100 100 100 100 100 100 100 100 100 100 100 100 100 100 100 100 100 100 100
3 0 0 0 3 55 47 8 97 82 98 75 100 97 100 99 97 54 17 48 28 90 94 78 99 97 100 100 100 100 100 100 100 100 100 98 100 100 100 100 100 100 100 100
5 1 0 0 6 68 4 59 61 100 99 90 100 100 98 100 100 76 41 10 35 5 54 47 85 87 100 100 99 100 100 100 100 100 100 100 100 91 100 100 100 100 100 100
5 5 4 0 12 81 6 15 7 94 91 94 88 100 100 100 100 100 51 5 48 5 26 41 82 65 99 99 64 32 55 90 89 100 100 82 79 86 100 100 100 100 100 100
5 5 1 2 5 89 58 11 68 70 75 94 100 100 100 100 100 100 100 14 89 6 5 5 38 95 78 99 81 26 61 91 98 82 100 100 93 99 100 100 100 94 100 100
5 5 5 5 6 2 36 98 10 88 98 100 98 100 100 100 100 100 91 34 18 6 5 12 17 82 59 45 99 56 64 24 37 100 97 93 100 82 78 94 98 99 86 100
52 5 5 5 6 4 3 99 36 10 96 100 95 96 100 100 100 100 91 85 62 84 67 95 100 98 83 22 69 81 94 95 93 97 78 43 80 100 99 100 100 76 100 100
56 5 5 5 4 4 5 45 95 20 89 100 100 57 98 100 100 100 100 97 74 75 99 96 80 98 8 89 71 92 66 98 93 86 85 93 5 90 100 96 100 100 100 100
5 5 5 5 5 5 14 4 27 43 27 91 100 100 91 92 100 100 100 100 92 99 99 86 98 95 47 37 8 48 56 71 99 97 100 96 21 48 100 97 98 100 100 100
5 6 5 5 5 74 94 5 10 15 95 16 100 100 100 89 99 100 100 100 100 96 98 76 43 100 46 53 98 91 82 80 94 76 88 94 100 100 100 100 100 100 100 100
36 4 5 7 98 70 7 5 5 33 69 11 7 100 100 100 96 81 98 100 100 100 94 55 54 92 73 80 99 88 91 78 88 100 100 100 100 100 100 100 100 100 100 100
5 5 16 5 5 56 5 5 6 78 61 96 3 46 100 100 100 94 84 95 100 100 95 90 90 93 90 99 75 95 41 71 81 97 100 88 100 66 100 100 100 100 100 100
5 6 15 5 26 100 6 1 4 44 100 54 28 3 100 100 100 97 86 94 89 100 100 100 98 90 89 100 96 82 56 38 32 100 78 100 59 88 85 100 100 100 100 100
5 5 8 5 64 90 33 76 40 39 99 100 99 2 7 100 100 100 100 100 100 100 100 100 100 100 100 100 100 97 90 58 72 84 84 100 74 100 74 90 95 59 42 30
5 5 27 6 12 35 24 39 74 99 100 100 89 6 89 96 100 100 100 100 100 94 100 100 100 100 100 100 74 9 66 100 100 100 100 100 100 100 100 100 100 100 72 70
5 7 5 3 4 27 95 10 74 100 100 100 98 35 57 97 100 100 100 100 100 97 100 100 100 56 100 100 45 86 54 90 100 100 100 100 100 100 100 100 100 100 99 71
5 2 1 5 34 90 96 99 71 100 100 98 95 99 100 100 100 100 100 100 100 100 100 99 81 98 89 100 28 90 72 99 90 100 100 100 100 100 100 100 100 100 100 100
0 1 18 42 100 59 100 100 100 100 100 100 100 100 100 99 100 100 100 100 100 100 100 86 100 87 77 5 27 29 72 98 100 100 100 100 100 100 100 100 100 100 100 100
20 6 12 70 40 10 100 100 100 94 96 100 100 100 100 100 100 100 100 100 100 90 100 93 100 100 86 88 27 65 100 87 98 100 100 100 100 100 100 100 100 100 100 100
5 13 16 93 71 75 99 100 100 100 100 100 100 100 100 100 100 100 100 100 97 97 99 98 100 100 100 64 90 87 69 98 100 88 89 93 100 93 97 95 99 93 99 100
76 36 98 100 100 100 100 100 100 100 100 100 100 100 100 100 100 100 100 100 96 100 100 100 53 7 31 94 100 96 96 71 94 86 75 91 82 100 98 100 100 100 100 100
10 58 6 57 93 100 100 100 100 100 100 100 100 100 100 100 100 100 100 100 100 100 100 83 68 99 100 100 100 100 100 100 100 100 100 100 100 100 100 100 100 100 100 100
15 46 8 12 72 68 99 100 100 100 100 100 100 100 100 100 100 100 100 100 100 95 100 100 100 100 100 100 100 100 100 100 82 92 96 99 88 90 96 98 98 84 87 100
61 83 72 5 8 18 21 99 100 100 100 100 100 100 100 100 100 100 100 100 100 100 100 100 100 100 100 100 100 100 100 100 96 100 100 100 97 84 98 91 79 74 77 93
100 95 90 70 87 48 74 100 100 100 100 100 100 100 100 100 100 100 100 100 100 100 100 100 100 100 100 100 100 100 100 100 100 99 100 100 94 100 100 100 99 99 99 86

GFSNW_prec_cloud_081.txt.gz
Cloud_Cover
0 0 0 0 0 0 1 14 2 5 5 10 73 100 100 99 87 44 52 36 96 99 100 100 100 100 100 100 100 97 42 100 100 100 100 100 100 100 100 36 76 12 6 26
0 0 0 0 0 0 7 21 6 5 5 65 84 87 100 98 86 86 14 26 89 100 99 100 100 100 100 100 100 100 8 65 96 100 100 100 100 100 60 5 5 5 61 95
0 0 0 0 0 0 0 5 13 10 25 81 100 100 58 68 74 85 85 92 6 89 65 91 100 100 100 100 100 100 100 100 100 70 78 86 100 26 40 5 6 5 50 77
2 0 0 0 0 0 0 5 66 86 98 61 100 89 87 84 82 98 85 58 18 90 98 7 96 100 100 100 100 100 100 100 100 100 100 100 98 28 66 93 12 60 100 100
5 5 0 0 0 0 0 4 32 10 100 99 100 96 100 100 98 100 57 63 72 5 64 100 100 100 54 92 100 100 100 100 100 100 93 100 100 100 41 90 100 100 100 100
6 5 4 5 0 0 5 5 13 91 8 76 98 91 100 100 100 100 100 27 97 17 5 75 100 100 50 42 81 100 100 100 100 97 73 100 100 100 100 100 100 100 100 100
66 5 1 0 0 1 5 5 5 20 16 79 58 92 90 100 100 100 100 20 54 6 5 5 38 82 97 18 96 100 99 100 100 95 86 100 100 100 100 100 100 100 100 100
100 7 5 0 0 0 5 67 17 15 66 13 100 72 97 88 97 100 70 51 44 39 15 25 87 57 54 100 100 81 75 97 100 100 99 92 78 99 95 100 100 100 100 100
100 25 5 1 0 3 1 6 40 5 51 17 72 82 100 100 100 98 100 100 81 64 67 53 82 86 30 56 53 74 64 62 57 100 99 100 100 100 100 67 87 100 97 97
100 5 5 5 6 5 5 4 36 100 34 3 4 90 100 100 100 99 100 100 100 86 94 92 49 83 55 47 76 74 96 95 100 77 82 16 18 8 92 99 78 64 58 100
24 6 5 5 13 66 7 4 14 99 94 5 4 54 74 100 100 100 100 100 98 97 47 38 63 100 98 42 37 94 91 95 100 100 77 94 100 97 87 42 95 100 100 100
5 14 1 5 18 96 43 5 4 5 100 38 3 2 70 96 92 93 100 100 100 100 84 46 5 60 47 29 93 86 68 50 92 78 94 93 91 100 100 100 100 100 100 100
7 6 5 35 8 5 79 4 4 7 76 21 4 4 3 65 94 68 79 100 100 100 100 67 30 57 55 90 85 99 68 91 100 60 71 100 100 100 100 90 81 100 100 100
3 5 5 42 62 5 70 46 4 17 99 100 4 0 0 4 54 100 98 100 100 98 100 100 46 71 57 86 99 67 74 100 100 100 100 100 100 100 100 100 100 100 85 97
4 5 25 7 25 10 89 98 11 89 99 91 73 3 0 1 14 100 28 100 82 99 100 100 80 60 98 98 100 68 97 74 100 100 84 97 85 100 85 100 100 100 100 99
5 5 5 5 82 100 100 33 38 51 99 100 100 1 40 84 5 81 100 100 100 100 100 100 100 88 100 100 90 80 89 100 100 75 100 100 78 100 100 100 100 100 80 98
4 5 5 58 55 68 84 8 18 97 100 100 88 42 69 84 51 10 100 100 100 100 100 99 88 100 100 100 44 100 90 100 100 100 100 100 100 83 100 91 99 90 55 45
4 5 5 4 2 37 99 97 97 92 100 98 98 91 98 100 100 88 100 100 100 100 100 100 100 96 100 99 16 100 100 100 100 100 100 100 100 100 100 100 100 100 100 94
5 5 7 12 57 96 100 37 93 100 92 100 99 100 80 92 100 100 97 100 100 100 91 100 58 100 100 100 6 56 100 100 100 100 100 100 100 100 100 100 100 100 100 87
5 5 4 37 53 61 24 100 100 100 100 100 100 100 100 100 100 100 100 100 100 100 100 100 100 100 100 95 58 61 59 100 100 100 100 100 100 100 100 100 100 94 100 70
5 5 57 3 5 7 99 99 98 94 100 100 100 100 100 100 100 100 100 100 100 100 100 100 100 100 20 7 36 64 99 100 100 100 96 81 100 100 100 100 100 100 90 100
18 20 5 45 82 78 88 77 85 100 100 100 100 100 100 100 100 100 100 100 100 100 100 100 100 100 48 38 84 92 84 87 89 100 99 94 100 88 90 99 98 100 94 90
9 46 91 85 83 76 71 71 35 76 78 100 99 100 100 100 100 100 100 100 100 100 100 100 100 50 50 54 15 51 78 82 96 94 87 93 79 98 100 100 100 100 100 100
6 82 39 61 67 47 96 74 95 70 97 100 100 100 100 100 100 100 100 100 100 100 100 99 66 51 98 58 100 100 100 100 100 100 100 100 100 100 100 100 100 100 100 100
24 54 52 5 14 66 92 100 99 99 100 100 100 100 100 100 100 100 100 100 100 100 100 100 100 100 100 100 100 100 100 100 100 100 100 100 100 100 66 90 85 83 95 100
14 80 81 8 30 43 26 8 25 100 100 100 100 100 100 100 100 100 100 100 100 100 100 100 100 100 100 100 100 100 100 100 100 100 100 95 94 100 91 83 61 69 53 69
100 94 94 17 83 34 48 5 50 100 87 100 100 100 100 100 100 100 100 100 100 100 100 100 100 100 100 100 100 100 100 100 100 100 100 100 87 97 94 80 99 95 100 94

GFSNW_prec_cloud_084.txt.gz
Cloud_Cover
17 0 0 0 0 0 5 0 2 5 5 5 99 100 100 48 94 80 96 42 57 40 81 100 100 100 100 100 100 100 100 100 100 100 100 100 100 100 100 99 69 14 11 26
0 0 0 0 0 0 5 1 7 5 3 64 99 100 100 99 94 100 81 29 100 100 83 100 96 100 100 100 100 100 100 100 95 100 100 100 100 100 100 100 76 5 5 23
4 0 0 0 0 0 0 4 10 3 18 100 100 100 100 98 99 100 95 94 88 34 38 97 100 100 100 100 100 95 100 100 86 100 100 100 100 100 100 89 8 5 8 90
5 1 0 0 0 0 0 12 83 17 76 20 100 97 100 100 100 100 31 56 12 5 15 76 91 100 100 100 100 100 100 100 65 100 100 100 100 100 99 86 8 48 60 10
5 4 0 0 0 0 0 6 15 7 9 18 99 100 100 100 100 100 100 80 66 5 20 78 70 99 100 100 100 100 100 100 71 13 22 12 45 99 23 9 13 86 100 100
28 5 0 0 0 0 5 5 5 70 5 5 12 44 48 59 100 90 95 100 96 78 5 32 40 71 100 100 100 100 100 100 100 99 87 97 93 96 60 100 100 100 71 100
100 55 4 0 0 1 4 5 5 5 5 5 5 9 100 71 100 100 95 90 89 24 5 17 5 5 19 41 100 100 100 98 100 100 100 100 100 98 100 100 100 100 100 100
94 51 5 0 0 3 4 5 5 5 38 5 4 5 37 94 100 100 100 99 72 61 21 51 53 66 38 5 19 100 100 100 100 91 100 100 100 100 100 100 100 100 100 100
5 5 5 0 5 5 5 5 68 100 98 13 5 5 58 97 90 95 100 69 65 62 26 83 38 79 99 98 12 7 73 98 100 100 100 100 100 100 100 100 100 100 100 100
1 5 5 0 5 5 5 5 23 88 63 4 2 5 48 97 100 100 95 78 71 58 5 53 48 65 5 51 100 100 100 90 41 45 95 100 100 100 100 100 99 100 100 100
0 0 4 0 5 5 10 5 5 7 68 5 5 5 5 86 100 100 98 91 100 75 37 44 13 5 20 49 29 33 65 92 50 27 21 97 15 46 82 77 21 63 61 6
0 0 0 5 5 5 15 62 57 5 31 2 0 0 5 7 99 100 98 94 100 100 92 76 38 14 46 5 80 86 81 74 87 58 40 12 27 5 22 23 100 100 100 98
5 1 0 5 7 5 28 57 100 100 99 17 3 3 3 0 36 100 100 83 100 100 100 100 96 15 30 54 77 85 99 100 96 100 100 100 100 88 68 61 100 95 100 100
5 2 0 3 5 5 10 59 94 100 100 100 5 0 0 5 5 85 65 35 100 100 100 100 62 40 10 63 91 96 96 100 100 100 99 62 60 90 100 100 100 100 99 100
5 5 1 0 5 42 5 70 94 76 55 85 52 2 0 47 9 35 5 45 97 100 100 100 100 58 83 77 65 89 100 100 100 99 68 88 100 100 100 100 100 100 99 100
37 23 5 0 5 18 54 23 65 94 98 100 76 3 43 99 18 2 5 15 91 88 100 100 100 100 70 79 100 100 100 100 100 100 100 100 100 100 100 100 100 100 100 100
67 5 1 0 11 81 71 5 49 94 100 100 62 47 100 97 93 9 5 100 99 100 100 100 100 100 100 94 92 100 100 100 100 100 100 100 100 100 100 100 100 100 100 94
99 5 5 2 2 6 65 100 38 98 99 88 98 50 5 100 100 48 63 98 98 100 100 100 97 100 100 99 100 100 100 100 100 100 100 100 99 77 96 100 100 100 99 78
69 11 5 5 8 26 70 65 85 97 82 88 81 78 75 80 99 99 100 100 100 79 100 98 90 100 100 33 17 99 100 100 100 100 100 100 100 100 100 100 100 100 100 96
34 96 11 29 45 5 19 97 100 100 100 100 49 51 71 74 99 100 100 100 100 100 100 94 100 100 98 10 5 5 61 100 100 95 100 100 100 100 100 100 100 100 100 100
48 51 59 3 5 3 100 100 93 83 88 72 44 86 91 84 100 99 100 100 100 100 100 99 100 100 28 13 34 66 84 100 100 100 100 100 93 94 100 100 100 100 100 100
66 5 10 24 36 87 85 86 83 81 37 99 100 99 100 100 100 100 100 100 100 100 100 100 100 94 29 41 88 97 74 89 95 96 100 100 100 100 100 100 100 100 100 100
49 45 88 64 49 67 87 98 8 14 60 86 100 100 99 100 100 100 100 100 100 100 100 100 100 98 40 34 98 61 77 93 100 96 100 100 100 100 100 100 100 100 100 100
6 32 6 23 56 67 96 74 87 43 89 100 100 100 100 100 100 100 100 100 100 100 100 100 100 100 89 99 46 100 100 100 99 92 89 100 100 100 100 100 83 88 99 100
44 25 7 29 14 74 100 100 47 5 71 100 100 100 100 100 100 100 100 100 100 100 100 100 100 100 70 94 99 97 99 100 97 82 100 100 100 100 100 100 91 83 62 34
78 68 82 14 34 50 60 75 36 11 97 62 100 100 100 100 100 100 100 100 100 100 100 100 100 100 100 100 100 100 86 100 100 100 100 100 100 100 100 100 89 68 72 55
99 89 98 88 94 85 54 49 6 18 46 100 100 100 100 100 100 100 100 100 100 100 100 100 100 100 100 100 100 100 100 100 100 100 100 100 100 100 100 100 93 76 63 79

GFSNW_prec_cloud_087.txt.gz
Cloud_Cover
5 5 3 0 0 0 6 0 1 3 4 5 98 99 97 100 100 94 100 93 100 97 100 100 100 100 100 100 100 95 80 100 100 100 100 100 100 100 100 96 100 100 100 100
5 5 3 0 0 0 0 0 5 2 3 41 94 100 98 98 100 100 87 88 73 100 99 100 100 100 100 100 100 100 95 65 100 100 100 100 100 100 100 100 100 100 83 48
5 5 0 0 0 0 0 4 6 3 5 72 100 100 100 99 100 100 96 94 96 99 100 100 100 100 100 100 100 100 100 100 100 100 100 100 100 100 98 65 99 74 98 100
3 1 0 0 0 0 0 14 80 29 82 8 96 99 100 100 99 44 88 100 99 60 20 99 100 98 100 100 100 100 100 100 92 100 100 100 100 100 100 100 100 62 82 39
4 5 0 0 0 0 4 5 6 5 5 5 34 86 66 68 53 90 100 100 100 94 75 96 100 100 100 100 100 100 100 100 100 100 100 100 100 100 100 100 100 94 45 50
66 5 0 0 0 0 0 4 5 19 5 5 5 5 13 54 49 81 97 100 100 100 94 6 48 100 100 98 100 100 100 95 100 100 100 100 100 100 100 100 100 100 100 100
10 5 1 0 0 0 0 4 4 5 2 5 5 5 5 45 96 97 100 99 100 81 86 78 5 91 100 100 100 100 100 100 92 23 94 100 100 100 100 92 78 60 99 100
14 3 0 0 5 5 3 3 4 13 37 5 5 5 5 12 72 5 42 100 100 87 86 98 91 91 47 96 100 54 100 100 100 91 75 92 76 99 100 100 100 100 100 100
4 0 0 0 5 4 0 2 3 5 21 44 5 5 5 5 99 28 19 100 18 97 66 100 94 45 5 47 96 60 100 100 100 100 100 100 100 100 100 100 100 100 100 98
6 1 0 0 1 2 5 5 4 4 18 5 4 5 5 5 28 99 71 74 75 97 97 92 96 80 38 5 51 92 100 100 100 95 99 100 100 94 100 100 100 100 100 98
52 0 1 0 5 3 0 5 35 52 6 5 4 5 5 5 51 79 100 84 92 100 84 86 77 6 10 30 75 45 33 100 100 100 100 98 100 100 100 100 87 100 100 100
32 4 4 0 5 8 3 5 16 87 64 5 5 5 5 5 12 61 99 100 94 100 100 100 85 10 5 5 38 39 90 96 100 100 100 44 63 99 79 83 100 100 100 91
88 5 5 12 3 7 5 10 56 100 100 9 5 5 2 8 10 5 44 98 100 100 100 100 100 84 15 19 44 10 6 27 36 67 57 91 70 7 84 83 89 95 84 90
100 61 17 1 5 25 16 57 74 89 48 77 5 5 5 7 3 3 84 71 79 90 100 100 100 87 48 76 100 38 87 99 99 62 43 15 16 27 55 98 91 95 100 100
100 100 52 5 5 82 8 21 11 6 35 70 20 4 3 22 5 5 52 5 5 99 100 99 100 100 76 29 16 40 98 100 56 21 76 78 81 100 99 99 100 100 100 100
100 100 45 9 12 17 32 5 40 42 80 100 69 46 95 95 62 14 5 5 5 24 99 100 90 96 77 83 18 12 6 43 72 73 100 100 100 100 100 100 100 99 100 100
100 100 100 50 5 14 2 5 5 56 72 100 64 6 66 52 100 10 8 9 82 12 100 100 89 97 96 100 86 94 97 100 100 100 100 91 95 100 100 100 100 100 100 89
100 100 100 5 5 5 9 26 6 5 70 96 92 22 5 5 61 90 5 5 26 99 100 99 72 98 100 94 95 74 100 100 100 100 100 100 90 100 100 100 100 100 100 100
100 100 48 5 44 37 10 5 5 42 56 86 80 96 64 9 7 96 80 85 100 100 100 87 74 99 100 58 99 100 100 100 100 100 100 100 100 100 83 99 100 100 100 100
100 100 83 52 23 5 5 55 45 99 100 100 100 35 93 60 93 99 100 100 100 100 100 73 90 100 72 61 6 62 100 100 100 100 100 100 100 100 100 93 100 100 100 100
100 100 100 100 90 49 44 88 90 84 94 91 95 92 100 39 100 89 99 100 100 99 100 100 99 100 22 12 31 11 42 95 100 100 100 100 100 100 100 96 100 100 100 99
100 100 100 100 72 48 28 76 76 72 71 94 100 100 99 77 100 100 100 100 100 90 100 100 100 100 70 79 82 100 83 95 100 86 95 100 100 100 100 100 100 100 100 100
100 100 100 95 75 23 80 97 9 20 60 70 97 100 100 94 90 100 100 100 100 98 100 100 100 100 78 88 100 100 94 93 100 85 89 99 100 100 96 99 100 100 100 100
100 100 100 80 76 49 86 36 23 5 37 6 91 99 90 75 100 100 100 100 100 95 100 100 100 100 100 100 100 100 99 100 100 96 91 87 96 74 93 99 92 72 10 8
100 100 95 67 15 76 99 100 78 6 7 63 84 97 100 89 100 100 100 100 92 100 100 100 100 100 100 100 100 100 82 75 66 92 69 37 97 100 99 100 100 98 99 99
100 100 80 63 51 67 71 100 97 8 10 19 85 100 100 64 100 100 100 100 98 100 100 100 100 100 100 100 100 100 97 97 100 100 100 100 99 100 100 100 100 100 96 76
100 86 81 23 88 86 61 12 7 77 58 77 100 100 86 35 100 100 100 100 100 100 100 100 100 100 100 100 100 100 98 100 100 100 100 100 100 100 100 100 100 100 98 100

GFSNW_prec_cloud_090.txt.gz
Cloud_Cover
100 100 100 100 10 5 1 0 0 1 5 5 93 64 100 78 100 100 100 89 99 100 100 100 100 100 100 100 100 60 4 94 100 100 100 100 100 100 100 100 100 100 100 100
100 100 100 100 20 5 0 0 1 0 0 43 80 87 98 97 100 100 100 96 93 76 93 100 100 100 100 100 100 86 13 99 100 100 100 100 100 100 100 100 100 100 100 100
100 100 100 96 5 3 0 4 3 3 1 5 95 99 96 58 95 98 100 100 97 66 34 100 100 100 100 100 100 100 82 68 100 100 100 100 100 100 100 100 100 100 100 100
100 100 100 87 4 0 0 8 72 63 58 6 18 66 100 59 22 70 96 100 98 100 100 97 100 100 100 100 100 100 96 78 100 100 100 100 100 100 100 100 100 100 100 100
100 100 85 5 2 0 5 5 5 5 5 5 5 5 5 7 37 66 100 100 100 100 100 100 100 100 100 100 100 100 100 98 100 100 100 100 100 100 100 100 100 63 65 100
100 100 67 6 1 0 0 4 5 5 5 5 5 5 5 5 83 23 98 98 100 100 61 81 97 94 100 100 100 100 100 99 81 100 97 91 98 100 47 96 100 100 87 97
36 97 80 9 2 0 0 2 5 5 0 1 5 5 5 5 4 8 76 100 100 81 73 5 43 59 100 100 100 100 100 99 100 100 100 100 100 99 100 100 100 100 90 91
89 46 5 57 5 2 0 8 2 5 5 5 5 5 5 5 4 5 88 99 92 95 24 5 7 98 46 100 100 100 100 100 98 100 100 100 100 100 90 80 69 47 100 100
26 5 5 5 5 2 0 0 3 4 5 3 5 5 5 5 60 5 8 94 94 100 36 15 5 38 26 60 69 100 100 100 100 100 100 100 100 100 100 100 100 100 100 100
10 5 5 18 3 2 0 4 5 3 5 5 4 5 5 5 14 66 5 78 96 100 80 28 5 55 46 24 78 100 100 100 100 100 100 100 100 100 100 100 100 99 100 99
84 20 52 38 0 4 0 4 71 11 5 4 3 9 5 5 5 42 18 59 64 98 89 86 85 25 9 7 45 100 100 100 100 100 100 100 100 100 100 100 100 87 100 100
100 85 100 58 2 5 4 5 95 100 35 5 5 5 5 5 18 5 5 54 67 100 100 96 100 89 7 7 8 64 89 100 100 100 100 100 100 100 100 100 100 100 100 100
100 100 100 75 5 5 5 6 91 81 80 5 4 1 4 5 5 5 5 5 99 100 100 100 100 97 70 10 46 5 27 7 81 74 87 100 60 100 100 100 100 100 100 100
100 100 94 67 5 12 63 90 100 18 7 36 5 3 13 4 3 3 4 9 59 98 94 100 100 94 73 21 14 5 23 5 5 5 5 46 99 19 93 91 63 50 35 20
100 100 100 89 5 29 11 24 12 5 3 17 9 9 61 98 60 5 5 5 5 79 99 96 100 100 90 94 42 11 33 18 44 74 78 80 71 99 91 51 14 22 46 27
100 100 100 99 56 98 28 6 9 79 98 46 38 5 71 99 80 64 64 72 82 22 99 100 82 99 62 94 69 42 78 98 99 100 100 100 99 100 100 100 100 100 99 100
100 100 100 100 48 8 5 5 7 48 100 67 15 7 5 78 56 63 5 7 28 10 37 98 70 90 74 81 96 48 57 95 97 90 99 100 100 100 100 100 100 100 100 100
100 100 100 100 99 6 37 5 5 59 79 9 52 31 11 13 18 78 88 37 100 91 62 100 100 63 95 98 51 78 78 94 86 86 65 67 94 100 94 99 99 100 100 86
100 100 100 100 53 35 6 5 5 45 24 59 89 100 69 5 8 66 100 94 100 87 100 100 85 55 91 71 75 86 99 100 100 100 92 90 98 100 100 100 100 100 100 100
100 100 100 100 61 90 34 83 46 11 19 100 97 58 50 23 30 93 100 100 100 100 56 99 100 100 99 60 21 93 100 100 100 100 100 100 100 100 100 100 100 100 100 100
100 100 100 98 92 55 39 95 58 63 82 95 91 62 99 8 80 55 49 100 100 100 100 91 99 100 56 35 57 52 97 100 100 100 100 100 100 100 100 100 100 100 93 100
100 100 100 100 72 95 95 100 99 48 63 70 52 24 12 64 96 100 89 100 100 87 100 100 93 100 86 61 83 100 100 93 100 100 99 85 72 100 91 100 100 100 100 100
100 100 100 100 99 100 100 100 76 34 60 5 5 22 5 90 86 99 100 100 100 96 100 76 99 100 100 68 95 100 100 96 96 93 100 100 100 100 100 59 70 99 98 90
100 100 100 99 100 100 100 76 41 6 56 61 9 50 57 79 90 84 100 94 100 100 98 100 100 100 100 100 100 100 100 100 100 98 97 97 98 54 38 5 5 49 83 84
100 100 100 100 100 95 86 62 33 12 23 5 24 75 60 93 98 97 98 100 100 100 100 100 100 100 100 100 100 100 100 98 88 67 68 77 59 18 31 36 47 65 57 68
100 100 100 100 100 96 93 100 100 43 39 28 83 96 91 64 98 96 96 100 100 100 100 100 100 100 100 100 100 100 100 100 100 100 92 90 97 100 100 100 100 100 100 96
100 100 100 100 84 95 85 70 26 88 62 61 100 94 94 86 88 97 100 100 100 100 100 100 100 100 100 100 100 100 100 100 100 100 100 100 100 100 100 100 100 100 100 100

GFSNW_prec_cloud_093.txt.gz
Cloud_Cover
100 100 100 100 100 16 36 5 0 0 1 4 11 75 100 86 100 95 100 100 99 100 100 100 100 100 100 100 95 5 6 97 100 100 100 100 88 100 100 100 100 100 100 100
100 100 60 100 100 58 28 5 3 0 0 55 36 94 82 12 36 87 97 100 100 100 100 100 100 100 100 100 100 3 4 100 100 100 100 100 51 35 100 100 100 100 100 100
100 100 57 94 100 84 6 5 2 1 1 5 79 53 5 5 5 84 96 100 97 85 100 100 100 100 100 98 100 35 15 100 100 100 100 73 86 98 100 100 100 100 100 100
100 100 46 92 100 42 5 6 40 55 9 2 5 34 5 5 5 5 99 66 100 100 94 97 100 100 100 100 100 100 40 97 100 100 100 100 100 100 100 100 100 100 100 100
100 76 80 100 57 5 6 4 5 5 5 5 5 5 5 7 5 5 31 95 100 99 100 100 100 100 100 100 100 100 99 87 100 100 100 100 66 100 100 100 100 100 100 100
100 100 100 96 5 5 5 15 5 2 1 4 3 12 5 6 7 5 15 43 100 100 95 88 93 99 100 100 100 100 100 92 95 100 100 100 100 94 100 100 100 100 100 100
100 100 100 68 5 1 0 4 5 1 0 0 2 5 5 5 58 5 43 100 100 68 70 5 40 98 100 100 100 100 100 100 98 100 100 100 98 100 100 100 100 100 100 100
100 100 100 83 5 5 1 12 4 4 0 4 5 5 5 4 36 9 5 17 11 98 18 5 27 58 92 100 100 100 100 96 90 88 97 100 94 57 100 100 100 100 100 100
100 100 100 98 19 5 5 6 0 4 2 3 2 5 5 5 10 81 4 39 96 100 81 32 5 63 8 98 100 100 100 99 61 75 76 28 52 98 72 84 95 89 73 96
100 100 100 100 100 17 13 5 4 3 5 3 3 4 5 7 5 46 56 80 99 51 46 49 34 81 5 5 89 100 100 100 95 88 100 71 94 100 99 94 26 51 100 32
100 100 100 100 100 6 18 4 67 6 5 5 3 5 12 37 7 32 27 79 20 100 100 96 100 100 49 5 28 60 100 100 100 96 95 96 100 80 100 100 100 100 100 100
100 100 100 100 96 5 40 5 94 52 20 5 5 28 57 32 5 5 5 14 100 100 75 80 100 100 74 17 6 51 60 100 100 100 100 100 100 100 100 100 100 58 36 92
100 100 100 100 90 73 78 5 13 65 5 4 4 14 5 5 4 5 5 5 99 94 99 100 100 100 91 55 5 5 10 6 98 100 100 100 100 100 100 100 100 100 100 100
100 100 100 100 99 100 74 77 5 10 5 4 4 23 5 5 5 5 5 7 49 28 78 93 100 100 94 32 60 54 5 5 14 40 82 99 100 100 100 100 100 100 100 100
100 100 100 100 100 100 42 6 10 5 5 4 5 5 5 27 15 7 26 43 6 50 16 55 100 100 97 87 71 26 5 5 5 6 27 22 46 80 100 81 41 71 64 36
100 100 100 100 100 100 100 6 8 97 96 5 8 5 5 5 7 12 55 83 100 94 100 93 58 71 90 99 83 5 5 23 26 34 59 57 27 83 88 87 67 63 67 73
100 98 100 100 100 100 99 17 31 47 58 13 5 5 5 5 6 68 15 89 78 36 39 52 54 56 86 82 99 96 10 31 71 100 100 100 100 100 90 97 100 100 96 76
100 100 100 100 100 100 100 6 25 34 34 5 49 13 5 5 5 11 97 67 100 80 21 38 98 92 98 63 55 91 100 84 65 80 86 100 100 100 100 100 100 100 100 100
100 100 100 100 100 100 100 37 32 5 4 66 56 64 52 5 6 27 95 82 80 84 90 83 52 53 98 100 68 42 100 100 100 100 100 100 100 100 100 99 99 98 88 98
100 100 100 100 100 100 84 54 5 5 5 8 14 56 57 5 28 32 94 100 100 100 46 99 100 44 100 96 100 91 100 100 100 100 100 100 100 100 100 100 95 100 100 100
100 100 100 100 100 100 90 44 27 54 60 30 7 18 93 17 83 68 53 99 100 99 85 99 99 100 100 100 100 100 100 100 100 100 100 100 100 100 100 100 100 100 100 100
100 100 100 100 100 100 90 95 82 39 36 15 8 8 22 9 59 100 100 100 94 94 99 100 100 92 100 96 98 100 100 100 100 100 100 100 100 100 96 95 100 100 100 100
100 100 100 100 100 100 99 89 64 31 10 6 27 5 5 37 77 95 100 100 81 96 100 100 99 100 100 100 100 100 100 100 100 100 100 100 100 100 100 100 94 95 14 8
100 100 100 100 100 100 92 100 90 5 34 75 71 66 8 7 53 99 97 78 100 100 94 94 100 100 100 100 100 100 100 100 100 100 96 99 100 100 100 100 44 5 5 5
100 100 100 100 100 100 100 100 75 29 34 6 28 59 46 78 94 88 68 89 100 100 100 91 93 82 100 100 100 100 100 100 100 100 100 100 100 100 81 23 7 5 5 5
100 100 100 100 100 100 100 83 93 62 28 16 81 89 96 86 98 98 47 90 82 100 100 96 94 94 93 100 100 100 100 100 100 100 100 100 100 100 77 57 63 97 96 67
100 100 100 100 100 100 100 98 37 87 68 93 94 99 6 84 98 86 53 36 37 98 100 89 15 84 68 100 100 100 100 100 100 100 100 100 100 87 81 99 100 100 100 100

GFSNW_prec_cloud_096.txt.gz
Cloud_Cover
100 100 100 100 100 100 5 77 5 5 0 11 14 76 69 38 52 98 99 100 100 83 100 100 100 100 100 100 24 5 2 98 100 100 100 100 100 97 100 100 99 97 99 100
100 100 100 99 78 97 100 43 5 5 3 5 31 10 14 6 21 99 93 97 100 100 64 80 100 100 100 100 9 0 1 79 100 100 100 100 100 32 100 96 93 99 90 100
100 100 100 100 100 100 100 5 18 5 0 5 9 41 3 5 5 82 99 93 83 100 99 78 98 100 100 93 74 24 16 50 100 100 100 100 100 100 94 100 100 100 100 100
100 100 100 100 100 100 98 30 10 6 2 2 5 6 0 5 5 5 100 100 84 100 96 99 100 100 100 99 92 96 100 100 100 99 73 98 100 100 73 100 100 100 100 100
100 100 100 100 100 100 68 17 6 5 0 2 4 0 0 5 2 5 32 99 71 91 100 100 100 100 100 100 100 100 92 100 100 100 100 100 83 60 99 100 100 100 100 100
100 100 100 100 100 78 8 55 26 2 0 0 0 0 0 5 3 1 5 16 89 99 81 42 43 90 98 100 100 98 88 99 100 100 100 100 98 100 100 100 100 100 100 100
100 100 100 100 100 86 5 52 5 2 2 0 0 0 4 2 5 5 6 81 74 24 48 10 38 76 96 100 100 100 100 100 96 100 100 100 87 52 100 100 100 100 100 100
100 100 100 100 100 99 7 8 8 5 3 0 0 0 0 0 5 5 5 74 6 100 32 36 32 78 51 74 92 100 100 97 54 100 100 78 88 21 19 36 95 100 100 100
100 100 100 100 100 69 11 9 5 10 3 0 0 0 2 5 5 1 1 10 91 95 76 44 68 94 13 99 98 90 95 53 59 33 100 92 100 70 100 100 100 100 100 100
100 100 100 100 100 58 9 5 5 56 5 0 1 2 4 5 5 5 5 46 43 10 69 84 94 99 5 65 100 100 99 96 100 98 72 9 96 99 100 100 76 100 96 96
100 100 100 100 100 100 15 5 5 69 5 3 4 4 5 5 5 5 4 43 34 39 71 98 100 100 70 23 41 100 100 89 9 44 48 88 83 60 78 78 74 100 100 99
100 100 100 100 100 100 12 5 5 68 3 2 0 4 3 5 5 5 5 54 99 97 45 31 100 100 96 86 93 30 98 100 100 61 37 7 8 10 95 91 73 93 98 74
100 100 100 100 100 93 7 5 5 5 4 0 0 5 5 7 5 5 5 17 98 80 26 64 86 100 86 82 46 11 8 88 100 100 100 60 69 99 100 98 22 73 100 93
100 100 100 100 100 100 97 5 7 4 4 0 0 4 11 62 5 5 5 13 32 19 76 45 100 100 86 62 38 73 10 5 13 91 100 100 100 100 100 98 99 53 97 100
100 100 100 100 100 100 89 5 5 5 1 1 0 1 5 100 21 39 30 5 5 36 24 94 97 97 100 96 100 83 5 56 6 12 57 98 66 100 100 100 100 100 100 100
100 100 100 100 100 100 97 97 10 10 5 1 0 2 5 72 62 61 18 82 92 73 98 95 68 6 83 89 82 40 6 5 79 99 72 68 92 100 100 100 100 100 100 92
100 100 100 100 100 100 100 100 84 59 8 5 2 0 5 23 20 39 27 20 91 95 62 100 19 84 91 97 94 56 78 70 22 84 100 100 100 100 100 99 88 90 98 92
100 100 100 100 100 100 100 100 100 53 8 5 5 4 5 34 32 14 96 83 91 84 64 34 71 46 60 89 90 100 83 100 100 79 100 100 100 100 100 100 100 100 100 100
100 100 100 100 100 100 100 100 100 25 21 38 5 5 5 28 67 5 87 98 100 70 92 38 47 49 98 80 95 97 90 88 100 98 94 98 100 100 100 100 100 98 99 100
100 100 100 100 100 100 100 100 100 100 87 8 5 43 5 6 66 6 86 100 100 100 89 91 83 75 76 75 94 40 60 84 100 100 100 90 92 98 100 100 96 100 100 100
100 100 100 100 100 100 100 100 100 100 100 16 5 6 5 20 49 30 51 97 93 97 73 97 58 96 82 82 100 100 100 91 100 100 100 100 100 100 100 100 100 100 100 100
100 100 100 100 100 100 100 100 100 100 100 64 5 41 25 11 54 92 97 99 100 100 81 100 82 98 85 98 96 100 100 100 100 100 100 100 100 100 100 100 93 100 83 97
100 100 100 100 100 100 100 100 100 100 99 71 26 50 5 73 39 79 97 98 100 82 100 95 100 94 65 71 100 100 100 100 100 100 100 100 100 100 100 97 61 65 79 82
98 100 100 100 100 100 100 100 100 93 29 79 27 46 6 94 30 93 95 69 93 98 100 96 90 89 8 64 99 100 100 100 100 100 100 100 100 100 100 86 70 67 46 14
100 100 100 100 100 100 100 100 100 100 96 96 66 22 19 100 54 67 71 95 94 79 53 70 68 19 5 5 89 100 100 100 100 100 100 100 100 100 100 100 100 100 100 65
100 100 100 100 100 100 100 100 100 100 100 89 99 49 75 91 84 90 49 90 18 30 37 54 44 5 5 5 59 100 100 100 100 100 100 100 100 100 100 100 100 81 32 5
100 100 100 100 100 100 100 100 100 100 100 100 100 99 98 62 99 92 14 41 15 25 12 5 19 14 5 5 17 95 100 100 100 100 100 100 100 100 100 100 100 92 31 83

GFSNW_prec_cloud_099.txt.gz
Cloud_Cover
100 100 100 100 100 100 89 100 100 59 41 59 80 100 72 33 100 92 58 78 98 89 100 100 100 100 100 85 7 5 40 55 64 100 100 100 100 100 100 100 98 100 94 91
100 100 100 100 100 65 82 100 100 72 60 98 74 36 52 22 60 99 95 74 82 88 90 100 100 100 100 86 14 5 6 74 95 100 100 100 100 100 100 100 100 100 100 100
100 100 100 100 100 69 100 100 100 41 32 11 6 5 1 0 5 78 100 73 89 48 98 99 100 100 100 90 51 4 6 52 96 100 100 63 99 99 100 100 100 100 100 100
100 100 100 100 100 67 100 100 100 46 90 12 0 5 0 0 5 4 96 100 91 80 92 100 100 100 100 100 66 67 57 75 97 100 100 97 100 77 100 100 100 100 100 100
100 100 100 100 23 73 100 100 100 98 100 5 0 0 0 0 0 5 100 89 75 100 99 100 100 100 100 100 92 59 100 100 100 67 89 100 100 100 100 100 100 100 100 100
100 100 100 100 74 70 100 100 63 86 11 4 0 0 0 0 0 0 5 6 47 99 77 87 28 68 100 100 100 70 92 100 100 100 100 100 100 97 66 100 100 100 100 100
100 100 100 100 100 100 100 100 52 83 86 5 2 0 0 2 3 0 1 7 94 42 5 5 22 8 20 100 100 100 100 100 100 100 100 100 99 99 95 100 100 100 100 100
100 100 100 100 100 99 100 100 85 75 53 5 5 0 0 2 5 5 5 5 6 18 46 84 96 64 50 88 100 100 99 98 97 100 100 86 28 100 86 100 100 100 100 100
100 100 100 100 100 100 100 99 40 100 58 5 5 0 0 2 5 5 0 5 40 17 100 100 95 92 67 97 92 100 100 92 99 98 100 100 91 100 100 100 100 100 100 100
100 100 100 100 100 100 100 38 22 100 21 5 5 2 2 5 5 5 1 5 5 13 99 90 87 99 13 89 94 98 100 97 84 100 100 97 8 96 19 91 91 100 35 47
100 100 100 100 100 100 100 77 9 100 58 5 5 0 5 5 5 5 5 50 28 16 95 84 99 100 96 54 17 48 99 74 100 93 82 88 100 100 100 57 59 99 88 64
100 100 100 100 100 100 100 99 5 68 6 5 5 2 5 5 5 5 25 99 99 100 94 68 51 100 99 63 100 33 93 94 84 61 98 69 68 100 100 100 99 100 100 100
100 100 100 100 100 100 100 100 6 49 6 5 5 5 0 0 5 5 6 32 100 73 99 100 100 89 45 99 92 32 90 87 100 100 100 100 100 100 100 99 100 100 73 86
100 100 100 100 100 100 100 100 78 48 5 5 4 5 5 5 5 14 5 30 12 23 85 99 100 100 66 100 66 50 33 59 93 100 100 100 100 100 100 100 100 98 100 96
100 100 100 100 100 100 100 100 100 13 5 5 31 5 5 5 5 21 24 12 31 98 70 83 98 100 92 100 100 72 17 41 68 100 90 100 100 100 100 100 100 100 100 91
100 100 100 100 100 100 100 100 100 25 5 4 64 6 5 11 11 10 56 47 97 72 89 55 29 36 92 87 100 38 5 5 5 37 59 97 100 100 100 100 100 100 100 100
100 100 100 100 100 100 100 100 100 58 5 5 10 100 6 34 49 83 91 78 100 98 100 85 6 20 56 95 98 80 8 47 58 5 60 44 18 85 93 99 100 100 100 100
100 100 100 100 100 100 100 100 100 100 27 5 45 90 5 75 27 85 96 100 90 98 100 60 71 96 65 85 99 74 80 12 41 91 48 70 94 92 69 72 59 79 100 100
100 100 100 100 100 100 100 100 100 100 81 5 5 23 48 100 79 31 96 98 100 100 100 98 79 90 95 99 84 98 64 76 60 75 93 100 100 100 94 77 83 84 67 99
100 100 100 100 100 100 100 100 100 100 95 97 5 5 71 100 15 92 93 100 99 99 78 80 98 97 100 91 94 98 88 66 100 45 91 83 100 100 88 97 99 100 100 100
100 100 100 100 100 100 100 100 100 100 100 71 7 26 12 100 73 83 66 95 75 86 95 96 90 99 70 78 76 98 91 91 98 98 72 70 68 100 100 98 100 100 100 100
100 100 100 100 100 100 100 100 100 100 100 100 21 14 94 69 60 99 92 100 100 99 89 100 97 72 43 5 21 100 100 77 90 100 100 100 100 100 100 100 100 100 100 99
100 100 100 100 100 100 100 100 100 100 100 100 8 12 76 99 73 74 47 95 100 73 92 91 98 16 28 5 24 44 99 100 100 93 100 100 100 100 100 100 100 100 100 100
100 100 100 100 100 100 100 100 100 100 100 70 34 19 65 100 66 63 90 80 68 85 100 78 9 5 5 5 7 98 100 100 100 100 100 100 100 100 100 100 100 100 100 98
100 100 100 100 100 100 100 100 100 100 100 100 100 100 100 98 64 86 90 98 100 79 84 39 5 5 5 5 4 22 100 100 100 99 66 100 100 100 100 100 100 100 100 75
100 100 100 100 100 100 100 100 100 100 100 100 47 89 99 49 83 97 90 99 67 82 6 5 5 5 5 5 5 6 85 100 100 100 70 100 100 100 100 100 100 100 100 100
100 100 100 100 100 100 100 100 100 100 100 100 100 100 78 68 99 100 81 80 89 10 5 11 5 5 5 5 5 7 88 100 100 100 100 100 100 100 100 100 100 100 100 100

GFSNW_prec_cloud_102.txt.gz
Cloud_Cover
100 100 100 89 100 100 100 100 100 100 100 100 100 80 88 60 100 100 84 70 94 67 100 100 100 100 96 5 5 12 48 99 100 90 99 100 100 100 99 100 100 100 25 23
100 100 100 100 100 100 100 100 100 100 100 100 96 10 76 14 88 100 100 97 90 93 100 98 44 100 65 30 5 45 20 95 41 100 100 100 97 71 63 63 74 51 85 87
100 100 100 100 100 100 100 100 100 100 100 100 81 5 15 3 5 77 98 59 90 86 59 90 100 100 96 61 23 5 3 32 100 100 100 100 100 100 92 100 98 99 80 100
100 100 100 100 100 100 100 100 100 100 100 100 7 5 0 0 5 11 94 98 99 89 88 95 100 100 88 85 5 0 12 98 100 100 100 100 100 100 100 100 100 100 100 99
100 100 100 100 100 93 100 100 100 100 99 100 6 3 0 0 0 5 100 96 42 100 100 94 97 100 92 98 59 5 9 100 100 100 100 100 100 100 100 100 100 100 100 100
100 100 100 100 100 94 55 52 100 100 99 100 10 5 0 0 0 0 3 5 20 100 77 75 79 96 100 100 100 5 22 37 66 100 53 100 100 100 100 100 100 100 100 100
100 100 100 100 100 99 21 71 95 100 100 98 5 5 0 0 0 0 0 3 55 30 5 7 14 68 100 100 100 74 100 100 91 100 75 86 100 100 100 100 100 100 100 100
100 100 100 100 100 100 80 80 93 100 100 100 10 5 0 0 0 0 0 3 3 5 5 85 100 78 89 65 88 100 91 96 86 98 100 85 53 72 100 100 100 100 100 100
100 100 100 100 100 100 77 75 100 100 100 100 6 5 0 0 0 0 0 5 5 21 100 73 92 94 15 96 78 100 98 85 100 71 100 100 98 100 100 100 100 100 100 100
100 100 100 100 100 100 100 100 100 100 94 100 32 9 0 1 2 0 0 5 5 88 100 95 81 69 19 74 89 98 77 80 82 97 100 82 84 100 100 100 100 100 100 100
100 100 100 100 100 100 100 100 100 93 88 83 62 37 5 4 2 5 0 28 13 16 100 100 100 100 76 90 36 19 75 83 100 71 56 100 99 37 100 100 100 100 100 100
100 100 100 100 100 100 100 100 100 100 64 40 67 52 5 4 0 5 5 53 99 98 99 94 80 100 97 34 89 5 72 94 100 58 75 80 77 92 94 100 88 58 70 86
100 100 100 100 100 100 100 100 100 72 52 9 6 10 5 2 1 5 5 22 100 99 96 100 100 95 99 92 45 9 84 5 34 99 77 8 16 52 100 100 100 94 84 100
100 100 100 100 100 100 100 100 100 77 65 8 5 5 5 1 0 4 21 24 5 5 12 99 100 100 88 100 74 60 10 5 49 80 93 100 99 100 94 100 100 100 100 97
100 100 100 100 100 100 100 100 100 95 5 5 5 5 5 2 5 7 49 8 7 79 28 72 88 98 70 100 92 90 90 82 33 92 55 45 100 100 100 100 100 100 99 100
100 100 100 100 100 100 100 100 100 100 54 5 5 5 5 5 10 15 100 49 87 44 6 9 38 80 98 99 99 100 54 36 67 31 5 8 18 100 100 100 100 100 100 100
100 100 100 100 100 100 100 100 100 100 61 5 5 5 5 7 95 100 100 100 100 100 90 36 5 17 77 78 100 100 5 5 43 52 76 46 64 92 92 99 100 100 100 100
100 100 100 100 100 100 100 100 100 100 100 33 78 62 5 21 24 88 98 100 100 100 92 39 41 96 44 93 78 100 77 88 95 94 84 65 34 74 100 100 99 100 100 100
100 100 100 100 100 100 100 100 100 100 100 100 100 100 8 8 8 87 86 100 100 99 100 99 97 96 71 61 35 63 18 56 79 75 16 100 100 100 100 100 100 100 96 99
100 100 100 100 100 100 100 100 100 100 100 100 100 100 32 6 10 100 100 100 100 100 80 71 39 88 72 80 20 88 90 32 68 68 50 99 56 77 99 100 100 100 100 100
100 100 100 100 100 100 100 100 100 100 100 100 100 96 19 5 31 90 100 100 100 84 87 78 68 84 48 40 26 67 100 99 51 37 61 56 82 95 35 100 100 100 100 99
100 100 100 100 100 100 100 100 100 100 100 100 100 100 91 28 51 100 83 100 100 100 88 99 90 22 10 13 30 11 87 100 100 100 52 38 68 63 86 99 100 100 100 100
100 100 100 100 100 100 100 100 100 100 100 100 100 100 57 6 59 75 100 92 100 99 93 80 30 5 5 34 5 5 44 100 86 100 100 95 92 100 100 100 100 100 100 100
100 100 100 100 100 100 100 100 100 100 100 100 100 99 100 73 37 63 67 35 63 90 99 96 47 19 10 75 32 6 5 16 100 99 100 100 100 99 85 100 100 100 100 100
100 100 100 100 100 100 100 100 100 100 100 100 100 100 100 100 70 59 56 94 100 92 17 9 18 6 6 7 32 9 31 16 83 100 100 100 90 74 97 100 100 100 100 100
100 100 100 100 100 100 100 100 100 100 100 100 100 100 100 76 41 84 96 90 79 18 15 15 6 50 14 16 31 21 19 44 30 100 100 100 74 71 100 100 100 100 100 100
100 100 100 100 100 100 100 100 100 100 100 100 100 100 73 60 93 72 100 100 33 5 5 5 14 16 5 28 13 7 5 6 95 100 100 100 72 74 99 100 100 100 100 100

GFSNW_prec_cloud_105.txt.gz
Cloud_Cover
100 100 100 100 100 100 100 100 98 99 100 100 100 70 5 6 95 100 96 97 87 98 100 77 100 97 91 5 3 80 100 100 97 100 100 75 11 45 20 29 70 70 98 18
100 100 100 100 100 100 100 100 91 98 100 100 100 59 5 5 78 100 100 100 87 100 93 99 95 79 5 3 5 9 99 85 47 90 89 61 100 100 100 100 100 100 100 28
100 100 100 100 100 100 100 91 96 100 100 100 100 37 5 0 4 96 99 71 98 57 94 100 96 100 5 4 5 4 6 99 98 100 100 100 94 100 100 100 100 100 100 95
100 100 100 100 100 100 100 98 100 100 100 100 100 5 5 0 3 11 56 100 100 100 99 90 100 93 6 6 0 0 12 100 71 100 100 100 20 100 100 100 100 85 94 95
100 100 100 100 100 100 100 96 100 100 100 100 100 5 3 0 5 5 100 100 32 100 90 84 98 92 78 73 27 14 5 12 5 100 100 100 100 67 79 99 100 83 98 100
100 100 100 100 100 100 100 100 100 100 100 100 99 13 4 0 2 3 5 5 20 89 98 89 94 100 100 100 100 5 5 10 31 99 100 100 100 100 100 100 100 100 100 100
100 100 100 100 100 100 100 100 100 100 100 100 83 6 5 0 0 5 0 2 20 8 5 61 6 94 100 100 100 77 58 100 80 100 100 100 100 100 100 100 100 100 100 100
100 100 100 100 100 99 100 100 100 100 100 100 96 6 5 2 0 5 0 0 3 5 12 98 96 71 71 56 100 100 100 70 69 97 100 100 100 100 100 100 96 100 100 100
100 100 100 100 100 100 100 100 100 100 100 100 79 6 5 5 0 0 5 5 5 5 50 43 97 65 78 64 96 100 100 99 99 98 100 96 100 100 100 100 100 100 100 98
100 100 100 100 100 100 100 100 100 100 100 100 28 5 5 5 1 0 1 5 10 5 6 73 86 34 7 62 42 91 78 93 100 45 62 60 50 96 100 100 100 100 100 100
100 100 100 100 100 96 100 100 100 100 100 100 44 6 5 5 5 4 1 5 5 13 91 91 100 97 32 45 48 23 23 11 44 42 22 36 17 5 64 84 99 100 100 100
100 100 100 100 100 100 100 100 100 100 100 95 54 40 5 0 0 1 5 8 64 21 16 55 100 100 66 74 99 27 94 18 7 7 13 5 7 6 86 46 93 100 100 100
100 100 100 100 100 100 100 100 100 100 100 100 99 13 5 2 0 2 5 62 48 56 7 48 81 98 94 84 18 7 51 21 89 73 93 26 80 86 100 99 100 99 98 100
100 100 100 100 100 100 100 100 100 100 100 100 87 8 5 4 4 1 5 5 5 19 66 100 100 100 96 100 70 22 37 5 63 58 86 54 96 92 100 100 100 100 97 99
100 100 100 100 100 100 100 100 100 100 100 82 98 9 5 5 5 5 4 5 5 5 5 72 66 68 94 99 88 96 100 75 18 98 68 14 10 90 78 76 100 100 100 100
100 100 100 100 100 100 100 100 100 100 100 99 69 7 5 61 64 12 5 5 5 5 47 47 34 80 87 99 92 93 96 54 15 5 66 21 5 8 37 77 99 100 100 100
100 100 100 100 100 100 100 100 100 100 100 93 11 5 5 32 100 100 100 100 98 13 62 28 5 17 77 95 20 96 100 85 42 17 5 50 66 46 31 80 100 100 100 100
100 100 100 100 100 100 100 100 100 96 75 57 25 20 5 7 30 99 100 100 95 88 70 86 66 15 5 18 32 5 59 96 15 87 81 71 60 21 41 31 66 99 100 100
100 100 100 100 100 100 100 100 100 100 100 100 24 15 41 5 52 100 96 100 75 95 100 94 83 74 55 38 6 67 7 12 23 41 5 56 73 100 100 100 100 93 99 100
100 100 100 100 100 100 100 100 100 100 100 100 100 60 7 80 94 100 100 100 88 84 34 82 83 12 5 5 56 5 45 100 82 100 75 73 97 99 100 100 89 59 42 100
100 100 100 100 100 100 100 100 100 100 100 100 100 73 19 100 65 70 100 100 98 96 74 80 63 95 16 6 37 5 13 100 100 100 100 97 92 74 21 43 54 63 58 76
100 100 100 100 100 100 100 100 100 100 100 100 100 100 100 64 90 100 100 96 96 73 89 100 98 25 5 5 6 5 31 39 96 100 100 100 100 90 97 86 84 83 86 89
100 100 100 100 100 100 100 100 100 100 100 100 100 100 92 100 100 100 99 90 82 87 100 96 16 6 5 5 5 5 14 11 99 92 100 100 100 100 100 100 100 100 100 100
100 100 100 100 100 100 100 100 100 100 100 100 100 100 100 100 99 100 100 56 49 98 97 20 25 5 5 4 5 6 95 5 100 100 99 100 100 100 100 84 72 88 78 100
100 100 100 100 100 100 100 100 100 100 100 100 100 100 100 100 100 100 100 86 55 5 5 24 5 5 2 2 5 5 24 12 81 100 93 92 99 100 100 83 95 95 100 100
100 100 100 100 100 100 100 100 100 100 100 100 100 100 100 100 100 100 100 36 6 7 64 23 23 5 5 5 5 29 9 5 59 93 87 99 100 100 100 88 87 96 97 100
100 100 100 100 100 100 100 100 100 100 100 100 100 100 100 100 100 100 99 6 5 17 31 20 7 5 5 5 38 7 12 5 37 6 83 100 100 100 100 100 100 100 82 100

GFSNW_prec_cloud_108.txt.gz
Cloud_Cover
100 100 100 100 100 100 100 100 87 95 100 51 5 5 5 26 97 44 25 92 38 84 88 61 96 49 60 5 100 100 100 100 100 100 100 99 100 70 37 100 63 86 86 14
100 100 100 100 100 100 100 100 99 100 100 36 15 5 5 6 98 100 81 96 83 96 73 96 95 5 5 5 64 100 100 100 100 100 90 100 100 38 5 5 23 86 82 10
100 100 100 100 100 100 100 100 99 100 100 5 5 46 5 5 5 89 100 91 100 41 72 98 85 58 2 2 1 100 97 70 79 87 95 88 59 96 100 100 70 100 97 98
100 100 100 100 100 100 100 100 90 100 20 5 42 99 5 5 5 24 86 97 99 100 93 72 100 98 7 2 0 2 16 90 97 54 100 91 78 100 100 99 100 100 100 94
100 100 100 100 100 100 100 100 100 100 20 6 100 63 5 5 5 4 41 92 73 100 63 76 100 100 100 98 44 5 5 5 69 14 98 100 100 100 100 100 100 93 92 87
100 100 100 100 100 100 100 100 100 99 8 55 100 17 5 5 5 5 5 5 7 98 100 100 99 100 100 100 100 5 5 65 100 90 98 100 100 100 96 77 100 92 100 56
100 100 100 100 100 100 100 94 100 100 23 100 94 40 5 23 0 5 4 1 5 9 66 71 64 100 100 100 100 23 31 100 96 92 99 97 100 100 100 100 100 100 87 96
100 100 100 100 100 100 100 100 100 100 53 100 51 8 5 5 0 5 5 3 5 5 72 70 57 82 98 90 100 100 99 100 87 79 89 71 97 96 85 81 96 100 100 100
100 100 100 100 100 100 100 100 100 55 97 100 80 11 11 5 2 0 5 1 5 32 69 97 98 34 76 72 93 100 100 100 88 72 87 84 98 93 100 100 85 100 100 100
100 100 100 100 100 100 100 100 100 85 100 98 42 12 71 5 4 5 4 5 5 5 5 54 68 10 23 7 22 92 97 96 93 81 100 65 63 97 100 82 72 100 100 100
100 100 100 100 100 100 100 100 100 94 100 97 66 27 46 5 5 3 1 5 5 5 5 5 5 5 5 25 24 19 20 29 64 67 79 96 9 32 56 100 100 100 100 100
100 100 100 100 100 100 100 100 100 100 100 100 72 14 34 5 4 2 5 5 5 5 5 7 64 9 5 5 62 5 41 5 33 9 62 21 39 84 97 91 94 70 42 100
100 100 100 100 100 100 100 100 100 100 100 100 89 81 93 5 5 0 5 5 5 5 5 9 17 16 5 5 28 5 28 5 32 31 84 5 18 100 100 100 100 92 81 100
100 100 100 100 100 100 100 100 100 100 79 100 100 100 100 18 7 1 0 5 5 5 5 60 57 41 5 5 5 5 26 5 95 82 77 55 70 19 99 100 100 99 97 100
100 100 100 100 100 100 100 100 100 100 98 100 100 100 92 6 24 5 0 4 5 5 5 83 56 77 57 88 65 91 62 39 5 94 32 5 5 5 7 93 97 100 94 91
100 100 100 100 100 100 100 100 100 95 87 99 100 100 83 18 5 5 5 4 3 5 5 5 26 91 96 53 33 49 43 40 9 5 5 23 5 5 13 50 100 100 100 100
100 100 100 100 100 100 100 100 99 96 92 98 100 100 97 96 100 100 63 17 5 5 5 6 18 20 43 76 17 66 73 100 20 5 5 55 99 95 83 58 93 97 98 100
100 100 100 100 100 100 100 100 100 100 94 79 86 77 87 88 62 65 100 92 18 5 5 5 5 10 23 33 5 7 13 12 5 5 51 17 54 81 93 93 83 91 73 63
100 100 100 100 100 100 100 99 100 100 72 21 84 93 50 88 94 95 98 90 24 38 90 10 12 5 45 7 5 5 5 5 5 5 5 5 70 98 100 100 100 100 100 100
100 100 100 100 100 100 100 100 100 100 95 10 78 99 81 100 93 95 70 79 60 58 18 48 99 39 28 27 5 5 5 91 96 100 66 48 96 98 100 100 100 100 100 100
100 100 100 100 100 100 100 98 100 85 80 82 100 100 100 100 100 82 39 81 43 46 15 67 56 60 27 43 11 5 5 8 67 100 100 100 100 100 96 16 64 78 69 70
100 100 100 100 100 100 100 73 60 80 90 100 100 100 85 44 99 100 66 33 84 14 69 90 88 62 53 42 36 5 5 7 5 30 83 100 100 100 100 100 100 100 100 100
100 100 100 100 100 99 100 99 100 100 100 100 97 96 78 13 95 100 65 74 34 52 100 98 99 56 32 20 36 5 5 5 5 5 90 12 54 82 100 100 100 100 100 100
100 100 100 100 95 100 100 100 100 100 77 84 100 100 87 100 100 99 11 34 54 97 92 100 40 5 58 60 46 5 5 5 5 6 69 58 40 100 82 100 100 100 88 83
100 100 100 100 100 100 100 100 100 100 100 100 100 100 94 100 100 97 39 84 86 24 64 82 97 62 64 81 41 5 5 8 7 5 38 66 9 47 99 100 100 100 80 95
100 100 100 100 100 100 100 100 100 100 100 100 100 100 100 100 100 100 53 9 47 44 6 30 32 21 96 46 16 5 8 19 12 5 44 7 58 99 100 100 100 84 98 95
100 100 100 100 100 100 100 100 100 100 100 100 100 100 100 100 100 100 97 86 86 42 76 74 61 78 52 42 17 11 5 5 5 6 9 73 99 100 100 100 100 92 61 68

GFSNW_prec_cloud_111.txt.gz
Cloud_Cover
100 100 100 100 100 100 100 100 100 100 100 100 54 6 5 36 100 85 5 36 5 59 96 100 26 20 55 6 63 100 100 100 100 100 98 100 94 85 100 100 100 100 100 100
100 100 100 100 100 100 100 100 100 100 100 100 17 5 5 44 100 100 5 39 52 97 100 93 8 5 5 7 99 100 100 100 97 94 60 24 14 94 99 80 100 100 82 98
100 100 100 100 100 100 100 100 100 100 100 92 41 11 7 46 85 94 93 26 98 89 85 90 72 7 4 3 2 31 83 71 71 34 100 90 100 87 41 100 100 76 74 85
100 100 100 100 100 100 100 100 100 100 100 100 99 12 31 5 17 12 80 48 93 100 82 91 100 84 8 3 4 1 5 14 94 100 19 74 52 15 90 100 100 100 100 100
100 100 100 100 100 100 100 100 100 100 100 100 93 5 30 5 5 5 5 5 95 100 72 68 100 100 81 87 26 5 5 5 22 100 8 97 100 100 100 95 99 59 99 100
100 100 100 100 100 100 100 100 100 100 100 100 95 23 81 5 3 5 5 5 5 100 98 100 100 100 100 97 78 5 5 5 53 70 68 100 95 100 100 100 100 92 69 88
100 100 100 100 100 100 100 100 100 100 100 100 83 71 93 5 5 5 5 3 5 24 96 91 100 100 100 44 8 18 99 100 93 99 94 75 100 16 21 87 100 18 5 5
100 100 100 100 100 100 100 100 100 100 100 100 69 83 82 2 5 5 5 2 5 5 22 96 100 97 89 100 100 98 100 100 93 72 92 67 96 68 16 5 15 16 26 5
100 100 100 100 100 100 100 100 100 100 100 98 70 67 100 5 4 2 5 4 5 6 65 98 85 72 39 79 94 100 100 99 81 90 76 75 99 99 78 11 55 100 59 15
100 100 100 100 100 100 100 100 100 100 100 100 12 54 99 5 5 3 1 5 5 9 8 34 74 5 10 13 22 82 96 98 96 90 85 49 87 97 56 24 28 85 9 5
100 100 100 100 100 100 100 100 100 98 100 100 18 37 76 49 5 2 1 5 5 5 5 5 5 5 5 5 5 5 5 25 75 25 44 48 5 24 97 68 78 21 6 10
100 100 100 100 100 100 100 100 100 100 100 100 80 43 13 20 6 4 5 3 5 5 5 5 5 5 5 5 39 5 5 5 32 5 5 5 5 52 58 84 78 98 16 6
100 100 100 100 100 100 100 100 100 100 100 100 100 97 8 41 62 5 3 5 5 5 5 5 5 4 5 5 5 5 5 5 13 5 58 6 92 78 72 63 92 93 100 52
100 100 100 100 100 100 100 100 100 100 98 100 100 99 97 96 14 5 4 0 5 5 5 5 5 5 5 5 5 5 5 5 19 5 34 56 99 60 94 100 96 100 100 100
100 100 100 100 100 100 100 100 100 100 100 100 100 94 100 100 33 5 5 1 5 5 5 5 5 5 5 5 5 5 5 5 5 5 5 7 15 5 9 97 100 100 100 91
100 100 100 100 100 100 100 100 100 100 100 100 100 100 100 89 21 5 5 5 5 5 5 36 5 5 5 23 5 5 5 5 6 5 5 5 5 5 43 100 75 100 100 100
100 100 100 100 100 100 100 100 100 100 100 100 100 97 99 100 92 17 5 5 5 5 5 5 5 5 47 42 5 5 5 5 5 5 5 12 81 85 100 100 100 100 100 100
100 100 100 100 100 100 100 100 100 100 100 100 100 92 100 100 99 80 19 5 5 5 5 5 5 10 85 45 5 40 8 6 5 5 25 5 15 65 100 100 100 93 100 100
100 100 100 100 100 100 100 100 100 100 100 100 100 100 100 99 100 70 42 5 11 5 5 5 5 5 37 8 17 48 52 84 5 5 6 5 8 39 51 100 100 100 100 100
100 100 100 100 100 100 100 100 100 100 100 100 100 94 81 86 100 78 64 43 61 61 5 5 13 6 5 5 12 5 68 100 9 10 75 45 7 7 21 91 100 100 100 100
100 100 100 100 100 100 100 100 99 100 100 96 100 100 95 66 33 16 6 19 76 45 5 6 55 81 6 5 7 5 7 95 37 13 77 79 69 75 100 100 100 100 100 100
100 100 100 100 100 100 100 100 100 100 100 100 100 100 100 81 57 19 39 5 45 42 6 62 33 5 5 13 35 15 25 55 78 10 88 38 6 19 28 40 51 100 100 100
100 100 100 100 100 100 19 100 100 100 100 100 100 100 98 100 99 36 58 8 39 28 88 36 5 5 5 32 21 62 59 52 50 18 34 91 20 43 6 73 17 98 98 100
100 100 100 100 100 99 20 100 100 100 100 100 100 100 100 100 97 63 59 75 51 100 100 42 8 5 5 52 66 96 98 48 34 94 5 5 5 48 19 6 5 100 100 100
100 100 100 100 100 100 88 100 100 100 100 100 100 100 100 100 100 91 66 88 99 90 100 84 34 22 24 87 100 100 98 70 99 8 48 72 19 40 48 46 56 100 100 100
100 100 100 100 100 100 100 100 100 100 100 100 100 100 100 98 67 100 61 98 62 44 100 47 62 84 66 86 100 100 100 67 31 5 7 5 5 25 38 90 100 100 100 100
100 100 100 100 100 100 100 100 100 100 100 100 100 100 97 76 83 72 32 74 24 65 100 67 43 62 42 100 100 100 100 52 51 32 5 5 38 99 74 97 100 100 100 100

GFSNW_prec_cloud_114.txt.gz
Cloud_Cover
100 100 100 100 100 100 100 100 100 100 100 100 100 100 100 95 94 22 33 25 5 44 98 75 5 7 53 94 58 40 100 41 67 100 100 68 100 100 100 100 100 100 100 100
100 100 100 100 100 100 100 100 100 100 100 100 100 100 99 47 100 38 75 47 45 94 100 74 5 5 69 6 10 7 5 90 100 41 69 100 100 85 100 100 58 100 100 100
100 100 100 100 100 100 100 100 100 100 100 100 100 72 24 38 92 99 97 7 61 98 91 85 50 5 5 5 5 2 6 73 100 100 95 100 100 99 100 100 100 100 100 100
100 100 100 100 100 100 100 100 100 100 100 100 82 35 8 5 5 23 98 10 52 99 71 100 100 66 8 4 5 5 5 33 11 100 100 80 94 68 88 100 100 51 100 100
100 100 100 100 100 100 100 100 100 100 100 100 39 21 5 5 5 5 5 5 52 86 6 88 100 75 86 81 31 5 27 34 6 24 100 100 88 49 13 96 37 98 99 100
100 100 100 100 100 100 100 100 100 100 100 87 26 30 6 5 5 5 5 5 6 61 67 100 100 100 100 95 5 5 12 7 28 74 48 59 96 100 99 100 99 91 25 11
100 100 100 100 100 100 100 100 100 100 94 87 37 54 30 5 5 5 5 5 5 8 100 95 100 100 100 34 11 33 96 17 26 85 22 96 100 82 83 61 100 74 17 5
100 100 100 100 100 100 100 100 100 100 100 63 66 84 5 5 5 5 5 5 5 5 18 97 100 78 84 99 100 100 99 48 48 55 95 91 98 92 58 23 83 97 62 12
100 100 100 100 100 100 100 100 100 100 100 96 70 100 86 19 5 5 5 5 5 5 10 93 75 55 48 61 100 99 100 99 70 88 43 41 96 97 19 6 37 99 72 5
100 100 100 100 100 100 100 100 100 100 100 97 64 100 100 57 5 4 5 5 5 7 5 6 5 5 5 5 42 87 100 90 97 99 51 28 59 42 63 14 38 88 25 30
100 100 100 100 100 100 100 100 100 100 100 99 53 98 100 69 5 5 5 5 5 13 5 5 5 5 5 5 5 5 6 28 91 28 14 28 5 30 87 83 100 94 84 9
100 100 100 100 100 100 100 100 100 100 100 100 62 88 100 100 18 5 5 5 5 5 5 5 5 5 5 5 32 5 5 5 5 5 5 5 12 11 88 99 97 100 81 38
100 100 100 100 100 100 100 100 100 100 100 100 100 98 100 100 99 16 5 5 5 3 5 5 5 1 5 5 5 5 5 5 5 5 5 5 76 42 54 80 95 100 100 100
100 100 100 100 100 100 100 100 100 100 100 100 100 100 100 100 100 100 66 5 5 5 5 5 5 5 5 5 5 5 5 5 5 5 7 63 100 47 6 86 70 100 95 66
100 100 100 100 100 100 100 100 100 100 100 100 100 100 100 100 100 100 86 22 5 5 5 5 5 5 5 5 5 5 5 8 5 5 5 5 47 19 5 54 41 100 97 97
100 100 100 100 100 100 100 100 100 100 100 100 99 99 100 100 100 92 67 61 5 5 5 5 5 5 5 5 5 5 5 5 5 50 5 55 65 93 77 100 100 100 100 100
100 100 100 100 100 100 100 100 100 100 100 100 100 100 100 100 100 100 74 56 52 5 5 5 5 5 5 5 5 5 5 5 5 8 12 7 50 78 86 99 100 100 100 100
100 100 100 100 100 100 100 100 100 100 99 100 100 100 100 100 100 100 100 70 43 12 6 5 5 5 5 31 5 5 5 5 5 9 22 7 36 36 82 89 100 100 100 100
100 100 100 100 100 100 100 100 100 100 100 100 100 100 100 100 100 100 50 54 80 23 14 23 5 5 57 5 5 5 5 5 5 7 17 17 58 43 99 48 20 88 90 100
100 100 100 100 100 100 100 100 100 100 100 100 100 100 100 100 100 90 66 89 98 57 48 14 23 6 5 5 5 5 5 5 5 8 13 33 34 15 72 93 58 28 38 36
100 100 100 100 100 100 100 100 100 100 98 100 100 100 100 100 100 94 77 92 85 91 47 28 26 11 5 5 5 5 13 5 5 5 44 59 17 81 14 16 63 80 39 31
100 100 100 100 100 100 100 63 100 100 100 100 100 100 100 100 100 100 99 100 91 84 25 66 59 78 41 22 5 6 16 5 6 11 26 96 25 26 43 13 86 49 18 5
100 100 100 100 100 96 13 47 100 100 100 100 100 100 100 100 100 100 100 100 100 68 88 74 80 98 89 97 17 20 5 13 42 98 100 100 71 63 8 5 5 5 5 5
100 100 100 100 100 44 5 88 100 100 100 100 100 100 100 100 100 100 100 100 93 99 62 24 51 70 98 60 6 42 5 35 100 100 100 100 100 20 41 5 5 6 36 68
100 100 100 78 100 100 76 96 100 100 100 100 100 100 100 100 100 100 100 100 100 77 100 93 24 68 84 51 66 66 10 73 100 100 100 100 36 20 21 5 5 72 78 100
100 100 100 90 100 100 100 100 100 100 100 100 100 100 100 100 100 100 100 100 100 77 91 100 67 23 76 17 72 37 28 46 100 100 100 64 7 8 36 60 54 19 75 90
100 100 100 100 100 100 100 100 100 100 100 100 100 100 100 100 100 100 100 100 91 67 85 92 83 41 70 28 12 26 12 41 100 100 100 46 82 99 85 19 11 73 93 98

GFSNW_prec_cloud_120.txt.gz
Cloud_Cover
100 100 100 100 100 100 100 100 100 100 89 75 100 100 89 43 88 48 18 5 5 7 5 5 5 5 5 5 53 59 66 79 100 91 100 100 100 100 96 83 100 100 100 100
100 100 100 100 100 100 100 100 100 100 47 100 100 67 5 100 72 94 100 26 22 16 5 13 5 5 11 45 64 44 20 18 99 93 100 100 100 100 100 99 100 100 100 100
35 100 100 100 98 100 100 100 100 98 100 100 96 26 21 96 92 80 21 25 42 5 5 5 4 2 5 5 5 5 4 5 56 100 96 100 100 100 100 100 100 100 100 100
99 100 99 82 83 100 100 100 100 100 100 100 90 29 9 14 5 5 7 26 9 36 53 52 5 5 5 1 3 4 4 5 6 76 82 96 99 100 98 100 100 100 100 100
100 68 57 79 100 100 100 100 100 100 100 100 82 13 5 5 5 5 5 5 5 5 17 7 5 5 5 5 5 5 5 5 5 5 7 96 88 90 100 98 100 100 100 100
100 100 100 100 100 100 100 100 100 100 78 78 71 74 5 5 5 5 5 5 5 5 73 5 5 5 3 5 5 5 5 5 5 5 4 6 76 90 100 100 100 100 100 99
100 100 100 100 100 100 100 100 100 100 96 68 68 79 18 5 5 5 5 5 5 8 80 86 73 86 62 50 5 5 5 6 5 9 1 25 85 60 90 100 100 100 97 68
100 100 100 100 100 100 100 100 100 100 86 99 90 64 78 5 1 5 5 5 5 74 91 74 87 62 32 62 5 38 5 5 26 16 71 16 7 17 55 48 100 99 97 90
92 100 100 100 100 96 100 100 100 100 100 100 100 72 79 55 5 5 5 5 5 5 100 97 56 6 7 6 13 5 5 5 50 5 5 5 54 18 7 5 98 61 9 79
69 92 100 100 100 94 94 100 100 100 100 100 100 100 87 99 49 5 5 5 5 5 36 63 36 5 11 5 5 5 5 5 30 5 10 5 4 41 49 22 52 94 42 26
89 65 100 100 100 100 88 100 100 100 100 100 100 100 98 100 100 53 5 5 5 5 13 5 5 5 5 5 5 5 5 5 6 5 5 4 5 28 38 7 100 100 100 87
5 91 100 100 100 96 100 73 100 100 100 100 100 100 100 100 100 96 25 5 5 7 5 5 5 5 5 5 2 5 5 4 5 5 2 4 5 6 5 25 100 100 100 100
15 5 99 100 100 100 100 100 98 100 100 100 100 100 100 100 100 94 98 45 11 7 20 5 5 5 5 5 5 5 5 3 5 4 2 5 5 5 5 30 17 31 95 90
12 41 16 97 100 100 100 100 92 100 100 100 100 100 100 100 100 93 100 82 79 35 5 5 5 5 5 16 5 5 5 5 5 5 2 5 5 5 5 5 12 5 5 5
6 72 52 93 100 100 100 100 98 82 98 100 100 100 100 100 100 100 72 88 76 60 27 5 5 5 5 22 5 5 5 5 5 5 0 3 0 4 5 5 5 5 5 5
1 95 100 100 100 100 97 100 100 94 84 97 100 100 100 100 100 100 100 100 66 31 52 13 5 5 24 75 15 12 5 5 6 5 5 0 0 5 5 5 5 5 5 5
82 82 100 100 100 99 96 84 100 91 76 95 89 100 100 100 100 100 100 100 100 43 15 6 5 6 6 44 47 59 6 5 6 5 5 3 5 5 3 4 5 10 1 4
43 51 100 100 100 100 97 100 100 100 97 67 98 78 97 33 91 100 100 100 100 100 29 23 35 5 9 49 79 50 63 36 9 11 6 5 5 5 4 5 5 9 5 4
5 6 99 100 100 100 99 100 100 98 96 49 98 100 100 99 100 100 100 100 100 100 95 56 42 46 16 19 80 82 67 58 85 34 46 40 8 5 5 5 5 5 5 5
61 96 100 100 100 100 100 100 100 98 99 7 97 100 100 100 100 100 100 100 100 100 100 59 89 94 11 5 27 20 96 73 61 86 100 97 88 49 6 5 5 5 5 5
100 100 100 100 100 100 100 100 95 100 72 22 100 100 100 100 78 99 100 100 100 100 84 92 72 62 23 43 16 32 60 81 11 5 26 61 96 7 5 5 5 5 4 4
100 100 100 100 100 100 100 97 45 18 93 65 100 100 100 100 100 100 100 100 100 100 100 100 55 60 5 42 33 11 38 93 57 10 5 5 56 5 5 6 5 5 4 5
100 100 100 100 100 100 100 85 19 39 28 100 100 100 100 100 100 100 94 99 65 100 100 100 41 99 10 22 14 29 39 69 51 47 44 5 5 5 5 73 12 5 5 5
100 100 100 100 100 34 5 5 99 22 97 100 100 100 100 100 100 100 97 84 100 100 100 100 61 100 55 67 23 7 48 47 45 24 21 5 5 5 41 97 68 5 5 5
100 100 100 89 5 18 5 4 67 96 59 100 100 100 100 100 100 100 64 98 100 100 100 100 100 100 98 100 91 96 100 100 11 5 45 42 5 5 10 80 20 5 5 18
100 100 87 88 33 99 99 44 12 100 100 100 100 100 100 100 75 82 15 100 100 100 100 100 100 100 100 100 100 98 100 99 6 5 28 20 5 5 5 5 5 5 5 6
100 99 7 5 6 19 19 7 6 100 100 100 100 100 100 100 50 5 12 100 100 100 100 100 100 100 100 100 100 100 100 76 22 9 14 20 5 5 5 5 52 67 5 11

GFSNW_prec_cloud_123.txt.gz
Cloud_Cover
78 20 89 98 100 99 100 100 100 100 100 97 19 92 11 10 37 55 39 78 84 6 5 5 5 83 88 5 62 75 95 97 100 100 100 100 100 100 100 93 100 100 100 100
100 100 100 100 100 100 100 99 100 100 94 30 10 8 33 52 76 96 96 83 82 39 5 29 0 4 4 5 5 17 58 80 96 80 96 100 100 100 100 100 100 100 100 100
100 100 100 100 100 100 99 100 100 76 50 9 16 66 77 59 5 68 37 32 66 12 5 1 4 5 4 0 5 4 55 95 94 97 100 100 100 100 100 100 100 100 100 100
100 100 100 100 100 93 100 100 98 14 77 6 5 27 51 76 67 12 18 28 77 58 5 5 5 5 5 4 2 0 3 87 72 9 100 100 100 100 100 100 100 100 100 100
100 100 30 100 100 99 100 100 100 11 5 5 5 4 5 75 5 45 17 31 5 72 44 5 5 5 5 5 4 3 5 7 28 42 46 100 100 100 100 100 100 100 100 100
100 100 100 81 100 100 100 100 100 100 8 5 5 5 5 7 5 4 4 13 46 69 27 29 5 5 5 5 7 5 5 5 38 17 5 10 84 98 100 100 100 100 100 100
41 60 100 100 84 100 100 100 100 100 94 12 5 5 5 5 5 15 5 4 33 6 5 5 4 5 5 5 5 4 7 27 5 17 5 41 38 26 89 96 100 100 84 100
85 31 51 100 98 67 100 100 100 100 100 52 11 5 5 14 5 4 5 2 2 5 5 64 5 5 5 5 5 5 5 12 55 66 5 9 74 23 85 100 40 81 91 6
72 5 6 10 47 10 7 96 100 100 100 82 46 15 5 17 28 5 5 5 5 5 94 98 56 15 5 5 5 3 5 5 43 5 5 5 31 13 5 5 68 21 85 13
99 84 32 21 12 61 33 25 86 100 100 100 58 60 70 19 20 44 8 30 6 5 100 94 55 5 3 4 1 4 5 5 17 5 8 4 5 5 5 46 83 5 35 56
100 94 97 99 15 49 13 27 69 100 100 100 100 56 14 81 45 51 38 58 44 20 75 12 7 5 5 5 0 3 5 4 5 5 5 3 0 5 57 49 5 35 27 5
100 100 74 93 100 48 46 49 25 81 100 100 100 100 55 22 67 68 72 48 53 66 48 5 5 5 5 5 5 5 3 1 4 2 2 2 0 5 2 5 5 22 72 93
97 97 98 100 100 100 74 20 67 62 94 100 100 100 100 68 21 73 83 92 56 60 87 60 6 5 5 5 30 5 5 5 5 0 0 0 0 0 0 2 5 5 5 6
77 21 48 70 90 100 85 72 46 58 44 91 100 100 100 99 37 94 57 90 86 100 65 95 82 31 44 5 6 45 5 24 5 5 4 3 2 3 5 5 5 5 5 5
98 64 46 99 82 100 100 100 56 94 84 96 100 100 100 100 100 100 100 54 71 67 100 78 74 72 71 36 5 8 5 63 24 5 0 0 0 0 0 4 5 5 5 10
100 84 100 100 100 100 100 99 35 69 74 92 65 100 100 100 100 100 60 100 100 84 69 89 94 58 76 12 39 31 6 13 5 7 5 1 3 0 0 4 5 5 5 5
95 70 100 100 100 100 100 70 6 7 100 76 100 90 100 100 100 100 100 36 99 100 100 46 59 69 70 67 41 62 26 66 57 11 12 5 5 5 5 1 4 0 4 0
100 94 65 100 100 100 100 96 83 71 62 46 85 96 100 100 100 100 100 100 23 29 100 100 100 70 50 68 91 80 57 18 52 43 42 58 15 5 5 5 5 4 2 1
100 100 98 100 100 100 100 100 100 99 78 6 68 100 100 100 100 100 100 95 75 41 77 100 100 100 7 66 9 5 49 88 93 6 5 5 5 5 5 5 5 2 4 5
100 100 100 100 100 100 100 100 99 68 86 26 34 100 100 100 100 100 94 92 52 6 59 76 100 100 79 23 8 5 5 55 73 43 58 8 5 5 5 5 5 5 5 3
100 100 100 100 100 100 100 100 98 24 14 5 50 100 100 100 100 100 27 84 42 51 62 83 95 32 90 5 17 7 5 18 65 74 74 52 5 5 2 4 4 1 5 5
100 98 100 100 100 100 100 84 20 12 4 5 100 100 100 100 100 100 100 100 87 13 70 42 100 67 100 54 6 30 16 13 10 17 37 86 62 5 5 5 0 0 5 5
100 100 100 100 98 100 100 89 97 7 5 5 97 100 100 100 100 100 100 99 99 88 82 74 100 16 95 98 100 72 13 25 50 64 100 41 90 15 5 5 0 5 5 10
100 100 100 95 86 65 5 5 6 0 5 5 15 100 100 100 100 100 100 100 100 80 67 100 100 86 95 100 100 80 44 49 56 30 99 57 26 7 5 5 3 4 5 5
100 100 72 78 6 6 10 5 2 4 5 5 7 98 100 100 100 100 100 100 64 26 100 100 100 91 94 100 72 79 100 70 92 95 67 9 5 5 5 5 5 5 5 5
100 100 96 42 46 33 53 10 14 5 5 56 99 82 100 100 100 100 100 100 97 100 100 100 100 100 98 100 100 100 87 88 98 100 90 26 5 5 40 5 5 5 5 5
100 100 66 45 5 6 9 5 5 8 94 100 100 93 63 90 100 100 100 100 100 99 100 100 100 100 100 94 81 78 70 92 100 100 100 100 92 49 99 39 5 5 5 5

GFSNW_prec_cloud_126.txt.gz
Cloud_Cover
100 100 98 100 100 100 100 100 49 3 0 9 10 14 6 38 20 5 5 45 40 10 4 4 5 5 5 5 75 100 99 100 100 100 100 100 100 100 100 100 100 100 100 100
28 98 100 100 100 100 100 90 46 5 4 33 5 5 5 11 54 5 6 54 40 7 4 23 0 0 0 0 5 20 37 99 98 100 100 100 100 100 100 100 100 100 100 100
67 8 49 100 100 100 91 100 90 17 5 0 3 5 5 5 4 5 5 14 5 5 5 2 1 0 0 0 3 5 5 82 100 100 100 100 99 100 100 100 100 100 100 100
45 16 5 24 95 99 100 85 85 20 31 5 5 5 5 5 5 3 5 6 5 14 20 5 5 1 4 3 0 0 5 14 94 100 100 100 100 100 100 100 100 100 100 100
100 74 100 2 4 71 49 100 100 98 74 81 5 4 5 5 3 5 5 5 5 5 17 24 5 5 4 5 5 5 5 98 5 99 100 100 100 100 100 100 100 100 100 100
100 100 100 100 68 0 5 96 99 100 95 100 100 19 5 5 2 0 2 4 13 6 5 4 5 5 4 5 5 5 5 5 5 14 6 32 100 75 85 72 100 100 100 100
100 100 100 100 100 6 0 10 100 100 100 96 95 100 82 5 5 5 4 1 5 4 0 1 3 2 5 5 5 5 5 5 23 5 10 48 6 29 100 98 100 100 100 100
100 100 100 100 100 99 1 3 7 99 100 96 72 100 100 96 5 5 5 4 0 0 4 5 5 4 1 3 1 2 5 5 20 14 13 6 11 94 100 100 98 100 98 100
100 100 100 100 88 100 100 3 5 3 96 100 99 46 100 100 92 7 5 5 5 5 57 54 5 16 0 3 0 0 0 1 5 5 5 5 5 3 1 10 47 87 92 58
100 100 100 100 100 96 96 65 2 5 6 98 100 100 33 95 100 100 14 5 5 5 100 71 5 5 2 4 0 0 1 0 4 3 4 1 0 0 0 18 5 5 54 10
100 100 100 100 100 90 5 9 4 4 32 15 100 100 100 8 49 100 100 34 7 7 24 18 14 5 4 5 4 0 0 1 4 0 1 2 0 0 5 6 4 5 5 6
100 100 100 100 62 79 62 5 5 5 6 67 7 100 100 100 46 23 94 100 37 46 31 31 5 5 5 5 5 5 5 1 0 0 0 0 0 0 0 5 4 5 5 5
100 100 100 100 100 100 96 81 7 5 5 14 40 36 100 100 100 94 64 96 93 8 88 16 5 5 5 5 5 5 6 5 5 2 0 0 0 0 0 0 0 2 5 5
100 100 100 100 48 100 100 100 81 9 5 5 44 86 12 100 100 93 85 87 95 100 21 90 19 5 8 15 23 5 5 5 5 5 5 3 2 0 0 0 0 0 2 4
100 100 100 100 100 100 100 100 100 98 24 5 6 34 98 96 100 100 87 100 93 56 92 43 60 5 5 5 28 26 5 5 5 5 5 5 5 0 0 0 1 0 0 0
100 100 100 100 100 100 100 100 31 34 60 66 5 8 70 100 100 100 100 100 100 100 20 59 30 51 5 5 5 5 6 5 5 12 5 5 3 5 3 1 3 4 5 5
100 68 99 100 100 100 100 100 100 100 89 14 5 26 79 100 100 100 100 100 100 100 100 39 15 9 54 6 16 50 38 17 5 5 5 5 5 4 2 0 0 3 3 4
100 54 100 100 100 100 100 100 100 100 96 49 35 10 95 100 100 100 100 100 100 100 100 100 77 5 6 18 13 86 88 37 5 5 5 5 5 5 5 5 5 4 3 5
99 94 100 100 100 100 100 100 100 100 99 88 24 6 71 78 100 100 100 100 100 100 100 100 100 35 46 32 27 33 70 69 41 9 5 5 5 5 5 3 5 5 5 4
95 88 100 100 100 100 100 100 100 100 100 96 22 5 85 20 99 100 100 100 100 94 100 100 100 89 40 59 40 10 61 8 16 5 7 10 5 5 5 5 4 5 5 5
100 100 87 100 98 100 100 100 100 100 100 36 5 5 35 97 56 100 100 100 100 100 100 100 100 100 16 81 98 38 11 19 5 5 5 5 13 5 5 4 0 0 0 4
52 100 100 100 100 100 100 98 88 100 70 5 5 4 4 55 100 96 100 100 100 100 100 99 100 100 19 100 76 84 28 7 5 5 5 5 67 64 6 5 5 5 5 2
100 98 100 100 100 100 100 79 93 58 4 5 5 8 21 5 77 26 90 100 100 61 78 100 100 100 52 100 100 100 90 36 14 5 5 22 84 100 31 5 5 5 5 4
100 100 100 100 80 96 86 5 6 4 0 5 5 15 7 5 63 7 62 43 64 96 92 100 100 100 100 100 100 100 96 55 40 5 7 91 100 100 76 18 5 4 5 5
100 100 100 100 8 9 28 3 5 4 5 5 8 24 5 60 34 68 18 76 91 5 79 100 100 100 100 100 99 100 100 99 67 65 68 98 100 100 99 86 32 5 5 6
100 100 95 62 31 20 35 21 30 5 5 1 6 47 72 33 22 82 44 7 39 72 82 100 100 100 100 100 100 100 100 100 100 100 86 78 100 100 100 100 99 21 16 5
100 100 94 52 18 5 5 7 7 5 5 6 86 100 32 16 72 73 5 41 100 100 100 100 100 100 100 100 100 100 100 100 100 97 69 54 83 100 100 100 100 100 100 97

GFSNW_prec_cloud_129.txt.gz
Cloud_Cover
100 100 38 9 82 27 30 24 16 5 4 4 5 5 5 6 5 5 5 5 5 5 0 4 5 5 3 5 27 64 26 31 91 100 100 100 100 100 100 100 100 100 100 100
100 100 100 24 15 29 5 5 5 2 5 4 1 5 5 12 5 4 5 5 4 0 0 2 0 4 0 0 10 6 6 14 57 72 58 97 100 100 100 100 100 100 100 100
100 100 100 100 82 2 22 16 8 6 5 6 5 4 5 4 5 0 5 4 5 5 5 1 2 0 0 1 5 6 5 8 78 100 100 100 100 100 100 100 100 100 100 100
100 100 100 100 91 69 2 30 52 6 5 5 41 5 5 4 3 0 5 5 5 4 4 1 4 0 5 0 0 3 5 98 16 99 47 65 100 100 100 100 100 100 100 100
100 100 100 100 59 4 8 4 29 88 35 5 8 5 5 5 0 5 5 5 5 5 5 4 5 0 3 4 3 5 5 5 5 5 5 96 100 100 100 100 100 100 100 100
100 100 100 100 100 10 0 5 4 7 91 43 5 5 5 5 5 1 5 5 5 5 5 1 0 0 3 4 5 1 5 5 5 6 66 30 78 100 95 100 100 100 100 100
100 100 100 100 100 22 2 0 3 14 18 47 31 5 10 5 5 5 5 5 5 4 0 0 0 0 0 3 0 1 0 5 5 5 9 53 100 100 93 100 100 100 100 100
100 100 100 100 100 99 5 0 0 1 22 5 57 70 7 21 5 5 5 5 5 5 5 3 2 3 4 0 0 0 2 5 5 5 19 2 99 100 81 100 100 80 100 100
96 99 100 100 100 100 65 5 2 0 2 25 29 54 61 53 13 3 5 5 5 6 5 5 5 5 0 3 0 0 0 3 5 5 5 5 0 94 5 21 10 17 100 100
99 64 100 100 100 100 100 95 21 5 0 1 54 87 77 20 39 10 4 7 8 39 76 18 5 5 1 2 0 0 0 4 5 5 4 1 3 4 6 94 30 71 6 56
51 40 85 100 100 100 100 100 96 94 5 0 4 97 99 98 34 18 25 5 5 6 68 91 21 5 5 4 3 3 0 3 5 3 2 3 0 0 3 36 78 61 5 14
76 100 97 100 100 100 100 100 100 96 48 3 1 14 100 99 98 100 71 32 10 5 9 47 60 6 16 5 5 3 0 3 0 0 0 0 0 0 0 0 5 22 13 5
48 100 100 100 100 100 100 100 100 90 94 5 5 1 76 100 99 99 100 98 73 5 5 14 59 11 5 5 5 5 5 0 5 2 0 0 0 0 0 0 0 0 1 5
69 58 87 100 100 100 100 100 99 89 23 44 5 2 2 100 100 96 100 100 100 93 5 5 5 6 5 5 5 5 5 5 0 2 0 0 0 0 0 0 0 0 0 0
5 6 6 100 100 100 100 100 100 100 93 100 82 4 0 3 99 100 86 100 62 100 98 5 5 9 9 6 5 5 5 5 3 1 0 0 0 0 0 0 0 0 0 0
86 5 5 92 100 88 100 100 100 76 100 32 100 74 3 0 4 100 100 93 99 47 100 99 5 13 58 9 35 5 5 5 0 0 2 0 0 0 0 0 0 0 0 0
81 16 6 92 100 91 100 100 95 93 17 6 90 91 30 5 5 5 100 100 100 84 86 100 100 21 86 100 71 87 5 5 5 5 4 4 0 0 0 0 0 0 3 4
100 56 45 99 100 100 100 100 100 100 100 98 67 35 12 5 5 5 7 100 100 100 100 100 100 100 100 99 70 93 72 40 12 5 4 5 3 5 2 2 0 1 2 0
99 17 68 100 100 100 100 100 100 100 100 61 100 89 7 5 5 5 5 17 100 96 100 100 100 100 100 48 90 100 100 61 40 43 22 5 5 4 3 5 0 0 4 5
100 61 79 100 100 100 100 100 100 100 100 100 100 100 47 5 5 6 22 5 34 73 72 99 96 100 100 54 46 100 100 100 54 63 33 5 5 5 5 0 0 0 0 2
100 99 94 100 94 100 100 100 100 100 71 81 98 13 15 4 19 6 5 39 14 91 54 69 5 98 100 28 65 100 100 100 95 48 52 41 6 5 5 5 5 3 3 0
100 77 80 98 100 100 100 100 100 100 72 43 14 5 5 5 5 12 39 62 66 72 82 100 97 98 100 36 96 100 89 98 100 93 79 89 60 8 5 5 5 5 2 0
100 100 100 100 100 100 100 100 80 91 84 54 5 26 13 18 10 27 63 100 82 4 70 95 100 100 100 55 7 93 80 46 100 100 100 100 65 36 63 85 84 5 5 5
100 100 100 100 100 100 100 100 100 100 45 12 5 70 6 7 91 33 97 21 31 99 99 99 100 100 100 100 19 40 12 5 85 100 100 100 92 76 77 96 72 64 18 5
100 100 80 100 100 100 100 100 100 96 54 22 10 27 12 46 74 76 39 93 100 54 5 91 100 100 100 100 99 36 88 66 63 100 100 100 100 100 100 100 100 100 98 79
100 99 100 100 100 100 100 100 100 94 5 18 5 74 95 86 27 93 69 39 21 1 5 5 77 100 100 100 100 100 98 59 78 99 100 100 100 100 100 100 100 100 100 100
100 100 100 100 100 100 100 100 100 31 5 5 40 77 14 11 97 92 5 5 5 5 5 5 5 93 100 100 100 100 100 75 94 100 100 100 100 100 100 90 99 100 100 100

GFSNW_prec_cloud_132.txt.gz
Cloud_Cover
100 100 14 19 1 5 24 48 100 99 55 4 5 5 5 5 5 5 4 5 5 3 0 5 5 4 5 3 0 5 65 100 100 36 5 52 100 100 100 100 100 100 100 100
100 100 100 61 4 0 5 3 7 89 93 94 9 5 14 6 5 2 2 5 1 0 0 1 0 1 0 0 1 2 8 100 50 63 100 90 100 100 100 100 100 100 100 100
100 100 100 100 56 66 2 1 4 5 73 93 47 8 4 5 2 0 0 4 5 5 2 3 0 0 0 0 0 3 12 19 56 67 91 100 100 97 100 100 100 100 100 100
94 100 100 100 100 52 21 84 1 0 5 81 80 24 5 5 0 0 4 5 5 5 5 1 1 0 0 0 0 5 5 5 5 5 22 100 100 100 100 100 100 100 100 100
100 100 100 100 100 100 59 16 51 3 5 4 67 87 55 5 5 0 4 5 5 5 5 5 5 3 0 2 4 5 5 5 5 20 22 100 100 100 100 100 100 100 100 100
100 100 100 100 100 23 32 60 36 5 1 0 3 53 98 82 5 5 1 2 1 4 4 1 0 3 0 3 5 5 5 7 5 5 59 100 100 100 100 100 100 100 100 100
100 100 100 100 100 89 64 21 95 86 100 15 17 43 30 100 99 27 5 4 0 0 5 5 0 0 0 0 0 5 5 5 5 5 5 100 96 88 100 100 100 100 100 100
100 100 100 100 100 100 74 43 15 48 100 82 0 34 96 38 100 100 72 5 5 0 1 5 5 5 0 0 0 0 3 5 5 11 46 47 98 100 100 100 100 100 100 100
100 100 99 100 100 100 100 65 43 22 44 65 3 0 22 98 82 100 100 76 5 5 1 5 6 6 5 0 0 0 2 5 35 5 5 5 23 77 100 94 100 100 100 100
89 100 100 100 100 99 92 7 65 64 75 43 12 6 0 12 99 87 100 100 20 5 5 5 5 5 5 5 0 5 1 3 5 5 5 3 5 6 86 100 98 86 34 100
39 100 100 100 90 70 45 5 6 5 42 69 100 11 5 4 5 98 98 100 100 19 5 5 5 5 5 5 5 5 5 4 5 5 5 4 5 13 22 34 80 44 24 75
100 100 41 100 96 82 30 5 7 5 7 73 100 100 86 4 4 1 89 98 100 100 35 5 5 5 5 14 5 5 4 5 0 2 0 0 0 0 5 5 6 7 45 64
100 99 85 25 81 100 100 52 100 70 7 5 83 100 100 81 21 0 0 76 100 100 100 35 5 5 4 5 5 36 5 5 5 0 0 0 0 0 0 0 0 3 5 5
100 72 47 62 32 25 63 49 97 92 89 5 8 99 100 100 99 2 0 0 95 100 100 100 13 5 2 3 7 46 53 14 5 5 2 0 0 0 0 0 0 0 0 0
100 75 65 93 100 78 66 72 34 100 50 37 4 25 62 100 100 36 0 0 0 95 100 100 100 30 5 5 5 5 5 45 48 5 5 4 0 0 0 0 0 0 0 0
100 100 52 98 84 84 100 100 24 94 100 92 2 5 41 72 100 97 0 0 0 3 99 100 100 100 88 12 5 2 5 5 5 16 33 5 5 0 0 0 0 0 0 0
100 100 94 100 100 100 100 100 65 32 5 4 2 5 8 10 100 100 5 5 5 4 6 100 100 100 100 100 19 7 5 0 4 5 5 26 15 5 4 5 3 1 0 2
100 100 95 100 100 100 100 100 100 100 65 6 5 5 5 5 86 100 26 5 5 5 5 33 100 100 100 100 47 68 7 5 5 0 3 5 5 5 5 5 5 5 4 1
100 100 100 100 100 100 100 100 100 100 96 65 20 5 4 5 5 51 88 5 63 5 5 5 20 100 100 100 98 61 96 5 6 57 1 0 1 5 5 5 5 5 2 4
100 100 100 100 100 100 100 100 100 100 100 100 99 6 26 5 5 7 39 8 47 98 6 5 5 98 100 100 100 84 51 40 9 50 5 1 0 0 0 0 2 5 5 5
100 100 100 99 100 100 100 100 100 100 100 80 91 73 13 5 24 6 43 53 47 100 4 6 14 44 100 100 100 100 23 86 98 54 5 53 5 3 0 0 0 0 0 2
100 100 100 100 100 100 100 100 100 100 81 20 47 26 6 9 5 6 55 55 82 90 5 62 95 3 100 100 100 100 100 83 100 91 5 15 23 9 5 5 5 2 4 5
100 100 100 100 100 100 100 100 100 100 89 86 19 52 10 14 10 36 77 96 72 5 76 71 9 0 0 30 100 100 84 100 100 99 18 67 97 91 39 5 5 5 5 5
100 100 100 98 100 100 100 100 100 100 100 99 6 82 5 7 68 82 97 42 67 99 88 30 3 0 0 1 96 100 40 47 88 96 25 31 93 100 91 86 16 10 27 6
100 100 100 100 100 100 100 100 100 100 100 89 43 45 11 82 81 96 98 96 100 63 4 4 5 0 0 1 23 100 100 99 55 100 93 9 41 99 100 100 98 41 6 8
100 100 100 100 100 100 100 100 100 100 90 53 74 99 90 76 36 95 100 84 79 1 5 5 5 5 2 1 0 64 100 100 100 100 100 99 86 100 100 100 100 99 31 34
100 100 100 100 100 100 100 100 100 100 100 99 86 96 94 67 89 93 58 27 5 5 5 5 5 5 5 5 1 5 100 100 100 100 100 100 100 100 100 100 100 49 17 47

GFSNW_prec_cloud_135.txt.gz
Cloud_Cover
84 84 6 5 5 5 55 4 5 16 100 31 5 4 5 2 2 2 5 5 5 5 0 4 5 5 2 0 5 96 98 100 100 93 99 100 100 100 100 100 100 100 100 100
100 91 62 5 25 5 90 32 11 2 50 91 88 6 4 5 4 0 0 0 1 3 5 3 0 0 0 0 5 6 11 63 100 100 100 100 100 100 100 100 100 100 100 100
90 100 66 82 8 25 5 5 22 28 12 7 96 100 19 5 5 4 0 0 0 0 0 2 2 0 0 0 5 5 7 100 100 100 100 100 100 100 100 100 100 100 100 100
90 76 100 100 100 99 64 5 5 7 5 8 48 96 100 21 5 5 5 4 5 3 2 0 0 0 0 0 4 5 5 60 100 100 100 100 100 100 100 100 100 100 100 100
51 100 68 100 100 97 99 43 5 4 24 6 5 5 98 100 21 5 14 5 2 0 4 0 5 3 0 0 2 5 5 6 30 100 100 100 100 100 100 100 100 100 100 100
39 10 99 100 100 100 100 91 83 5 5 5 12 5 10 98 100 20 5 26 24 5 0 0 0 0 0 0 5 5 5 13 21 100 98 100 100 100 100 100 100 100 100 100
40 17 100 56 100 100 100 100 90 71 5 2 3 84 5 5 86 99 49 5 8 6 5 3 0 0 0 0 0 5 5 5 88 70 100 100 100 87 100 100 100 100 100 100
87 78 56 81 100 100 100 100 100 64 86 81 3 5 32 5 4 53 100 55 5 5 5 5 5 4 0 0 0 0 5 5 39 60 72 100 100 100 100 100 100 100 100 100
60 46 100 75 68 75 56 100 90 79 53 79 41 6 4 21 5 5 15 93 54 12 14 6 6 6 5 0 0 0 5 5 8 7 28 34 6 74 100 98 98 98 100 100
96 24 100 73 54 63 93 98 100 96 83 99 71 70 27 14 5 72 20 23 96 29 68 28 8 5 5 5 1 0 4 5 33 21 34 5 5 50 91 40 95 8 100 100
5 81 87 91 23 73 100 100 98 87 28 100 52 69 84 99 74 32 39 9 12 100 64 94 68 8 5 5 5 4 0 5 24 5 13 12 12 25 28 26 10 39 34 75
5 8 93 46 6 100 24 100 79 83 29 51 88 64 95 100 61 99 14 42 5 5 87 66 92 37 48 5 5 5 5 1 0 2 2 0 0 6 15 55 20 5 65 94
90 56 85 95 88 88 100 100 77 97 99 13 29 36 100 93 92 100 100 12 4 0 5 97 65 100 9 48 6 5 5 6 6 4 0 0 0 0 0 3 8 63 76 58
100 96 100 100 83 43 95 80 38 84 59 20 5 8 73 11 62 99 100 100 93 20 5 11 100 84 96 63 16 5 5 15 58 17 5 1 0 0 0 0 0 2 3 0
100 100 100 100 99 13 100 100 37 17 92 97 5 5 41 5 10 100 100 100 100 11 3 4 8 72 100 100 82 40 5 22 86 99 34 5 2 0 0 0 0 0 0 0
100 100 100 100 100 100 100 100 90 93 99 93 13 5 5 5 21 51 100 100 100 83 5 5 3 5 68 100 100 3 91 26 6 30 99 99 11 5 0 0 0 0 0 0
100 100 100 100 100 100 99 95 99 97 18 74 41 4 3 5 20 54 47 97 99 97 5 13 5 4 6 78 100 4 66 22 5 5 6 80 100 100 56 5 5 1 0 0
100 100 100 100 100 100 99 84 96 100 80 31 85 5 4 9 66 53 54 10 100 96 5 5 15 4 4 16 30 58 3 95 5 5 7 5 19 82 100 82 49 5 2 4
100 100 100 100 100 100 100 100 100 100 100 84 100 14 5 30 18 45 99 8 68 5 9 5 5 6 56 0 4 12 72 4 48 1 42 5 5 5 13 82 100 37 5 5
100 100 100 100 100 100 99 97 90 100 100 100 100 7 5 11 19 90 98 100 99 99 21 6 32 8 0 0 0 2 6 50 5 5 5 5 4 2 5 5 5 5 6 5
100 100 100 100 100 100 100 100 100 100 100 96 100 99 59 60 95 51 79 62 52 100 76 39 18 34 4 5 0 0 0 5 20 14 11 8 36 7 3 5 5 5 5 0
100 100 100 100 100 100 100 100 100 100 100 100 99 88 96 70 6 5 88 50 90 100 13 83 100 9 0 4 2 0 0 0 3 19 100 88 6 80 6 5 5 5 5 5
100 100 100 100 100 100 100 100 100 100 100 100 91 82 29 100 100 92 86 99 76 96 94 91 10 4 5 5 5 0 0 0 0 4 46 100 100 15 42 21 5 5 5 5
100 100 100 100 100 100 100 100 100 100 100 100 97 79 59 19 60 92 100 66 77 100 98 47 6 26 8 5 1 0 0 0 0 0 5 64 100 100 100 74 14 5 16 5
100 100 100 100 100 100 100 100 100 100 100 100 100 72 17 79 30 91 100 92 100 78 5 5 5 17 15 5 5 4 0 0 0 0 0 11 50 100 100 100 100 88 63 100
100 100 100 100 100 100 100 100 100 100 100 100 100 100 80 57 69 96 99 100 82 16 64 50 37 5 4 5 5 5 0 0 0 0 2 2 100 100 100 100 100 100 100 100
100 100 100 100 100 100 100 100 100 100 100 100 100 79 100 71 100 100 100 98 22 100 100 100 79 5 5 5 5 1 3 5 5 5 5 5 21 62 100 100 100 100 100 100